Time,TemperatureF,DewpointF,PressureIn,WindDirection,WindDirectionDegrees,WindSpeedMPH,WindSpeedGustMPH,Humidity,HourlyPrecipIn,Conditions,Clouds,dailyrainin,SoftwareType,DateUTC
2013-06-22 00:00:00,66.4,66.4,30.44,South,180,2.0,4.0,0,0.00,,,0.00,meteohub,2013-06-22 04:00:00,
2013-06-22 00:01:00,66.4,66.4,30.44,South,180,2.0,4.0,0,0.00,,,0.00,meteohub,2013-06-22 04:01:00,
2013-06-22 00:02:00,66.4,66.4,30.44,South,180,2.0,4.0,0,0.00,,,0.00,meteohub,2013-06-22 04:02:00,
2013-06-22 00:06:00,66.4,66.4,30.45,South,180,2.0,4.0,0,0.00,,,0.00,meteohub,2013-06-22 04:06:00,
2013-06-22 00:07:00,66.4,66.4,30.45,South,180,2.0,4.0,0,0.00,,,0.00,meteohub,2013-06-22 04:07:00,
2013-06-22 00:08:00,66.2,66.2,30.45,NE,45,1.0,4.0,0,0.00,,,0.00,meteohub,2013-06-22 04:08:00,
2013-06-22 00:11:00,66.2,66.2,30.45,South,180,0.0,2.0,0,0.00,,,0.00,meteohub,2013-06-22 04:11:00,
2013-06-22 00:12:00,66.2,66.2,30.45,South,180,0.0,2.0,0,0.00,,,0.00,meteohub,2013-06-22 04:12:00,
2013-06-22 00:13:00,66.0,66.0,30.45,South,180,0.0,2.0,0,0.00,,,0.00,meteohub,2013-06-22 04:13:00,
2013-06-22 00:17:00,65.8,65.8,30.45,East,90,1.0,2.0,0,0.00,,,0.00,meteohub,2013-06-22 04:17:00,
2013-06-22 00:18:00,65.8,65.8,30.45,SE,135,1.0,2.0,0,0.00,,,0.00,meteohub,2013-06-22 04:18:00,
2013-06-22 00:22:00,65.8,65.8,30.45,East,90,2.0,2.0,0,0.00,,,0.00,meteohub,2013-06-22 04:22:00,
2013-06-22 00:23:00,65.8,65.8,30.45,East,90,2.0,2.0,0,0.00,,,0.00,meteohub,2013-06-22 04:23:00,
2013-06-22 00:24:00,65.8,65.8,30.45,East,90,2.0,2.0,0,0.00,,,0.00,meteohub,2013-06-22 04:24:00,
2013-06-22 00:28:00,65.8,65.8,30.45,SE,135,0.0,3.0,0,0.00,,,0.00,meteohub,2013-06-22 04:28:00,
2013-06-22 00:29:00,65.8,65.8,30.45,East,90,2.0,3.0,0,0.00,,,0.00,meteohub,2013-06-22 04:29:00,
2013-06-22 00:33:00,66.0,66.0,30.45,South,180,0.0,3.0,0,0.00,,,0.00,meteohub,2013-06-22 04:33:00,
2013-06-22 00:34:00,66.0,66.0,30.45,NE,45,0.0,3.0,0,0.00,,,0.00,meteohub,2013-06-22 04:34:00,
2013-06-22 00:35:00,66.0,66.0,30.45,East,90,0.0,3.0,0,0.00,,,0.00,meteohub,2013-06-22 04:35:00,
2013-06-22 00:38:00,65.8,65.8,30.45,East,90,1.0,3.0,0,0.00,,,0.00,meteohub,2013-06-22 04:38:00,
2013-06-22 00:39:00,65.8,65.8,30.45,East,90,1.0,3.0,0,0.00,,,0.00,meteohub,2013-06-22 04:39:00,
2013-06-22 00:40:00,65.8,65.8,30.45,North,0,1.0,3.0,0,0.00,,,0.00,meteohub,2013-06-22 04:40:00,
2013-06-22 00:41:00,65.8,65.8,30.45,NE,45,0.0,3.0,0,0.00,,,0.00,meteohub,2013-06-22 04:41:00,
2013-06-22 00:44:00,65.7,65.7,30.45,East,90,0.0,3.0,0,0.00,,,0.00,meteohub,2013-06-22 04:44:00,
2013-06-22 00:45:00,65.5,65.5,30.45,SE,135,0.0,3.0,0,0.00,,,0.00,meteohub,2013-06-22 04:45:00,
2013-06-22 00:46:00,65.5,65.5,30.45,SE,135,0.0,3.0,0,0.00,,,0.00,meteohub,2013-06-22 04:46:00,
2013-06-22 00:50:00,65.3,65.3,30.44,South,180,0.0,2.0,0,0.00,,,0.00,meteohub,2013-06-22 04:50:00,
2013-06-22 00:51:00,65.3,65.3,30.44,South,180,0.0,2.0,0,0.00,,,0.00,meteohub,2013-06-22 04:51:00,
2013-06-22 00:52:00,65.1,65.1,30.45,South,180,0.0,2.0,0,0.00,,,0.00,meteohub,2013-06-22 04:52:00,
2013-06-22 00:55:00,64.9,64.9,30.45,South,180,1.0,2.0,0,0.00,,,0.00,meteohub,2013-06-22 04:55:00,
2013-06-22 00:56:00,64.9,64.9,30.44,SE,135,1.0,2.0,0,0.00,,,0.00,meteohub,2013-06-22 04:56:00,
2013-06-22 00:57:00,64.9,64.9,30.45,SE,135,0.0,2.0,0,0.00,,,0.00,meteohub,2013-06-22 04:57:00,
2013-06-22 00:58:00,64.8,64.8,30.44,SE,135,2.0,2.0,0,0.00,,,0.00,meteohub,2013-06-22 04:58:00,
2013-06-22 01:01:00,64.8,64.8,30.44,East,90,2.0,2.0,0,0.00,,,0.00,meteohub,2013-06-22 05:01:00,
2013-06-22 01:02:00,64.9,64.9,30.45,East,90,4.0,4.0,0,0.00,,,0.00,meteohub,2013-06-22 05:02:00,
2013-06-22 01:04:00,64.9,64.9,30.44,NE,45,2.0,2.0,0,0.00,,,0.00,meteohub,2013-06-22 05:04:00,
2013-06-22 01:07:00,64.9,64.9,30.44,East,90,0.0,4.0,0,0.00,,,0.00,meteohub,2013-06-22 05:07:00,
2013-06-22 01:08:00,64.9,64.9,30.44,East,90,0.0,4.0,0,0.00,,,0.00,meteohub,2013-06-22 05:08:00,
2013-06-22 01:10:00,64.9,64.9,30.45,East,90,0.0,4.0,0,0.00,,,0.00,meteohub,2013-06-22 05:10:00,
2013-06-22 01:12:00,64.8,64.8,30.44,East,90,0.0,4.0,0,0.00,,,0.00,meteohub,2013-06-22 05:12:00,
2013-06-22 01:13:00,64.8,64.8,30.45,East,90,0.0,4.0,0,0.00,,,0.00,meteohub,2013-06-22 05:13:00,
2013-06-22 01:14:00,64.8,64.8,30.45,East,90,0.0,4.0,0,0.00,,,0.00,meteohub,2013-06-22 05:14:00,
2013-06-22 01:15:00,64.6,64.6,30.44,East,90,0.0,4.0,0,0.00,,,0.00,meteohub,2013-06-22 05:15:00,
2013-06-22 01:16:00,64.6,64.6,30.44,East,90,0.0,4.0,0,0.00,,,0.00,meteohub,2013-06-22 05:16:00,
2013-06-22 01:19:00,64.6,64.6,30.45,SE,135,0.0,4.0,0,0.00,,,0.00,meteohub,2013-06-22 05:19:00,
2013-06-22 01:20:00,64.6,64.6,30.44,SE,135,0.0,2.0,0,0.00,,,0.00,meteohub,2013-06-22 05:20:00,
2013-06-22 01:22:00,64.4,64.4,30.45,SE,135,0.0,2.0,0,0.00,,,0.00,meteohub,2013-06-22 05:22:00,
2013-06-22 01:25:00,64.4,64.4,30.45,SE,135,0.0,2.0,0,0.00,,,0.00,meteohub,2013-06-22 05:25:00,
2013-06-22 01:26:00,64.4,64.4,30.45,SE,135,0.0,0.0,0,0.00,,,0.00,meteohub,2013-06-22 05:26:00,
2013-06-22 01:27:00,64.4,6.6,30.45,SE,135,0.0,0.0,10,0.00,,,0.00,meteohub,2013-06-22 05:27:00,
2013-06-22 01:31:00,64.4,8.8,30.45,SE,135,0.0,0.0,11,0.00,,,0.00,meteohub,2013-06-22 05:31:00,
2013-06-22 01:32:00,64.4,8.8,30.45,SE,135,0.0,0.0,11,0.00,,,0.00,meteohub,2013-06-22 05:32:00,
2013-06-22 01:33:00,64.4,8.8,30.45,SE,135,0.0,0.0,11,0.00,,,0.00,meteohub,2013-06-22 05:33:00,
2013-06-22 01:36:00,64.4,8.8,30.45,SE,135,0.0,0.0,11,0.00,,,0.00,meteohub,2013-06-22 05:36:00,
2013-06-22 01:37:00,64.4,8.8,30.45,SE,135,0.0,0.0,11,0.00,,,0.00,meteohub,2013-06-22 05:37:00,
2013-06-22 01:39:00,64.6,8.8,30.45,SE,135,2.0,0.0,11,0.00,,,0.00,meteohub,2013-06-22 05:39:00,
2013-06-22 01:42:00,64.4,6.6,30.45,SE,135,1.0,0.0,10,0.00,,,0.00,meteohub,2013-06-22 05:42:00,
2013-06-22 01:43:00,64.4,6.6,30.45,SE,135,0.0,0.0,10,0.00,,,0.00,meteohub,2013-06-22 05:43:00,
2013-06-22 01:44:00,64.4,6.6,30.45,SE,135,2.0,0.0,10,0.00,,,0.00,meteohub,2013-06-22 05:44:00,
2013-06-22 01:48:00,64.2,8.6,30.45,SE,135,2.0,2.0,11,0.00,,,0.00,meteohub,2013-06-22 05:48:00,
2013-06-22 01:49:00,64.0,8.4,30.45,NE,45,1.0,2.0,11,0.00,,,0.00,meteohub,2013-06-22 05:49:00,
2013-06-22 01:50:00,64.0,8.4,30.45,SE,135,0.0,2.0,11,0.00,,,0.00,meteohub,2013-06-22 05:50:00,
2013-06-22 01:51:00,64.0,8.4,30.45,SE,135,0.0,2.0,11,0.00,,,0.00,meteohub,2013-06-22 05:51:00,
2013-06-22 01:53:00,63.9,8.2,30.45,SE,135,0.0,2.0,11,0.00,,,0.00,meteohub,2013-06-22 05:53:00,
2013-06-22 01:54:00,63.9,8.2,30.45,SE,135,0.0,2.0,11,0.00,,,0.00,meteohub,2013-06-22 05:54:00,
2013-06-22 01:55:00,63.9,10.2,30.45,SE,135,0.0,2.0,12,0.00,,,0.00,meteohub,2013-06-22 05:55:00,
2013-06-22 01:56:00,63.7,10.0,30.45,SE,135,0.0,2.0,12,0.00,,,0.00,meteohub,2013-06-22 05:56:00,
2013-06-22 01:59:00,63.7,10.0,30.45,East,90,2.0,2.0,12,0.00,,,0.00,meteohub,2013-06-22 05:59:00,
2013-06-22 02:00:00,63.7,11.8,30.44,East,90,0.0,2.0,13,0.00,,,0.00,meteohub,2013-06-22 06:00:00,
2013-06-22 02:01:00,63.7,11.8,30.44,East,90,0.0,2.0,13,0.00,,,0.00,meteohub,2013-06-22 06:01:00,
2013-06-22 02:02:00,63.7,11.8,30.44,SE,135,1.0,2.0,13,0.00,,,0.00,meteohub,2013-06-22 06:02:00,
2013-06-22 02:05:00,63.7,13.6,30.44,East,90,2.0,2.0,14,0.00,,,0.00,meteohub,2013-06-22 06:05:00,
2013-06-22 02:06:00,63.7,13.6,30.44,SE,135,1.0,2.0,14,0.00,,,0.00,meteohub,2013-06-22 06:06:00,
2013-06-22 02:07:00,63.7,13.6,30.44,North,0,1.0,2.0,14,0.00,,,0.00,meteohub,2013-06-22 06:07:00,
2013-06-22 02:08:00,63.7,13.6,30.44,NE,45,2.0,2.0,14,0.00,,,0.00,meteohub,2013-06-22 06:08:00,
2013-06-22 02:11:00,63.7,11.8,30.44,East,90,3.0,3.0,13,0.00,,,0.00,meteohub,2013-06-22 06:11:00,
2013-06-22 02:13:00,63.7,11.8,30.44,East,90,2.0,2.0,13,0.00,,,0.00,meteohub,2013-06-22 06:13:00,
2013-06-22 02:14:00,63.9,12.0,30.44,NE,45,1.0,2.0,13,0.00,,,0.00,meteohub,2013-06-22 06:14:00,
2013-06-22 02:16:00,63.9,12.0,30.45,East,90,1.0,3.0,13,0.00,,,0.00,meteohub,2013-06-22 06:16:00,
2013-06-22 02:17:00,63.9,12.0,30.44,East,90,1.0,3.0,13,0.00,,,0.00,meteohub,2013-06-22 06:17:00,
2013-06-22 02:18:00,63.9,12.0,30.44,East,90,1.0,3.0,13,0.00,,,0.00,meteohub,2013-06-22 06:18:00,
2013-06-22 02:20:00,63.9,12.0,30.44,East,90,1.0,3.0,13,0.00,,,0.00,meteohub,2013-06-22 06:20:00,
2013-06-22 02:21:00,63.9,12.0,30.44,East,90,1.0,3.0,13,0.00,,,0.00,meteohub,2013-06-22 06:21:00,
2013-06-22 02:22:00,63.9,12.0,30.44,East,90,1.0,3.0,13,0.00,,,0.00,meteohub,2013-06-22 06:22:00,
2013-06-22 02:23:00,63.9,10.2,30.44,SE,135,0.0,3.0,12,0.00,,,0.00,meteohub,2013-06-22 06:23:00,
2013-06-22 02:25:00,63.9,10.2,30.44,SE,135,0.0,3.0,12,0.00,,,0.00,meteohub,2013-06-22 06:25:00,
2013-06-22 02:26:00,63.9,10.2,30.44,SE,135,0.0,3.0,12,0.00,,,0.00,meteohub,2013-06-22 06:26:00,
2013-06-22 02:27:00,63.9,10.2,30.44,SE,135,0.0,3.0,12,0.00,,,0.00,meteohub,2013-06-22 06:27:00,
2013-06-22 02:28:00,63.9,10.2,30.44,South,180,0.0,3.0,12,0.00,,,0.00,meteohub,2013-06-22 06:28:00,
2013-06-22 02:29:00,63.9,8.2,30.44,SE,135,0.0,3.0,11,0.00,,,0.00,meteohub,2013-06-22 06:29:00,
2013-06-22 02:30:00,63.9,8.2,30.44,SE,135,1.0,1.0,11,0.00,,,0.00,meteohub,2013-06-22 06:30:00,
2013-06-22 02:32:00,63.9,8.2,30.44,SE,135,1.0,1.0,11,0.00,,,0.00,meteohub,2013-06-22 06:32:00,
2013-06-22 02:33:00,63.9,8.2,30.44,SE,135,1.0,1.0,11,0.00,,,0.00,meteohub,2013-06-22 06:33:00,
2013-06-22 02:35:00,63.9,8.2,30.44,SE,135,1.0,1.0,11,0.00,,,0.00,meteohub,2013-06-22 06:35:00,
2013-06-22 02:36:00,63.7,8.2,30.44,SE,135,1.0,1.0,11,0.00,,,0.00,meteohub,2013-06-22 06:36:00,
2013-06-22 02:38:00,63.7,8.2,30.44,East,90,2.0,2.0,11,0.00,,,0.00,meteohub,2013-06-22 06:38:00,
2013-06-22 02:40:00,63.5,10.0,30.43,East,90,3.0,3.0,12,0.00,,,0.00,meteohub,2013-06-22 06:40:00,
2013-06-22 02:42:00,63.5,10.0,30.44,NE,45,0.0,2.0,12,0.00,,,0.00,meteohub,2013-06-22 06:42:00,
2013-06-22 02:43:00,63.5,10.0,30.44,NE,45,0.0,2.0,12,0.00,,,0.00,meteohub,2013-06-22 06:43:00,
2013-06-22 02:44:00,63.5,10.0,30.44,East,90,0.0,2.0,12,0.00,,,0.00,meteohub,2013-06-22 06:44:00,
2013-06-22 02:45:00,63.5,10.0,30.44,NE,45,0.0,3.0,12,0.00,,,0.00,meteohub,2013-06-22 06:45:00,
2013-06-22 02:47:00,63.5,10.0,30.44,East,90,0.0,3.0,12,0.00,,,0.00,meteohub,2013-06-22 06:47:00,
2013-06-22 02:48:00,63.5,10.0,30.44,East,90,0.0,3.0,12,0.00,,,0.00,meteohub,2013-06-22 06:48:00,
2013-06-22 02:49:00,63.5,10.0,30.44,East,90,0.0,3.0,12,0.00,,,0.00,meteohub,2013-06-22 06:49:00,
2013-06-22 02:50:00,63.5,8.1,30.44,East,90,1.0,3.0,11,0.00,,,0.00,meteohub,2013-06-22 06:50:00,
2013-06-22 02:52:00,63.5,8.1,30.44,NE,45,0.0,3.0,11,0.00,,,0.00,meteohub,2013-06-22 06:52:00,
2013-06-22 02:53:00,63.5,8.1,30.44,NW,315,1.0,3.0,11,0.00,,,0.00,meteohub,2013-06-22 06:53:00,
2013-06-22 02:54:00,63.5,8.1,30.44,NE,45,2.0,3.0,11,0.00,,,0.00,meteohub,2013-06-22 06:54:00,
2013-06-22 02:57:00,63.5,8.1,30.44,South,180,1.0,3.0,11,0.00,,,0.00,meteohub,2013-06-22 06:57:00,
2013-06-22 02:59:00,63.5,8.1,30.44,NE,45,1.0,3.0,11,0.00,,,0.00,meteohub,2013-06-22 06:59:00,
2013-06-22 03:02:00,63.5,5.9,30.43,North,0,1.0,2.0,10,0.00,,,0.00,meteohub,2013-06-22 07:02:00,
2013-06-22 03:03:00,63.5,5.9,30.43,NE,45,1.0,2.0,10,0.00,,,0.00,meteohub,2013-06-22 07:03:00,
2013-06-22 03:04:00,63.5,5.9,30.43,East,90,1.0,2.0,10,0.00,,,0.00,meteohub,2013-06-22 07:04:00,
2013-06-22 03:05:00,63.5,5.9,30.44,NE,45,0.0,2.0,10,0.00,,,0.00,meteohub,2013-06-22 07:05:00,
2013-06-22 03:08:00,63.7,6.1,30.44,East,90,1.0,2.0,10,0.00,,,0.00,meteohub,2013-06-22 07:08:00,
2013-06-22 03:09:00,63.7,8.2,30.43,South,180,2.0,2.0,11,0.00,,,0.00,meteohub,2013-06-22 07:09:00,
2013-06-22 03:10:00,63.7,8.2,30.43,NE,45,2.0,2.0,11,0.00,,,0.00,meteohub,2013-06-22 07:10:00,
2013-06-22 03:11:00,63.7,6.1,30.44,East,90,1.0,2.0,10,0.00,,,0.00,meteohub,2013-06-22 07:11:00,
2013-06-22 03:13:00,63.9,6.3,30.43,East,90,0.0,2.0,10,0.00,,,0.00,meteohub,2013-06-22 07:13:00,
2013-06-22 03:14:00,63.9,6.3,30.43,East,90,0.0,2.0,10,0.00,,,0.00,meteohub,2013-06-22 07:14:00,
2013-06-22 03:15:00,63.9,63.9,30.43,SE,135,0.0,2.0,0,0.00,,,0.00,meteohub,2013-06-22 07:15:00,
2013-06-22 03:17:00,63.9,63.9,30.43,SE,135,0.0,2.0,0,0.00,,,0.00,meteohub,2013-06-22 07:17:00,
2013-06-22 03:19:00,63.7,63.7,30.43,SE,135,0.0,2.0,0,0.00,,,0.00,meteohub,2013-06-22 07:19:00,
2013-06-22 03:21:00,63.7,63.7,30.43,SE,135,0.0,2.0,0,0.00,,,0.00,meteohub,2013-06-22 07:21:00,
2013-06-22 03:23:00,63.5,63.5,30.43,SE,135,0.0,2.0,0,0.00,,,0.00,meteohub,2013-06-22 07:23:00,
2013-06-22 03:24:00,63.5,63.5,30.43,SE,135,0.0,2.0,0,0.00,,,0.00,meteohub,2013-06-22 07:24:00,
2013-06-22 03:25:00,63.5,63.5,30.43,SE,135,0.0,2.0,0,0.00,,,0.00,meteohub,2013-06-22 07:25:00,
2013-06-22 03:26:00,63.5,63.5,30.43,SE,135,0.0,2.0,0,0.00,,,0.00,meteohub,2013-06-22 07:26:00,
2013-06-22 03:29:00,63.5,63.5,30.43,NE,45,0.0,2.0,0,0.00,,,0.00,meteohub,2013-06-22 07:29:00,
2013-06-22 03:30:00,63.5,63.5,30.43,NE,45,0.0,2.0,0,0.00,,,0.00,meteohub,2013-06-22 07:30:00,
2013-06-22 03:31:00,63.5,63.5,30.43,East,90,0.0,0.0,0,0.00,,,0.00,meteohub,2013-06-22 07:31:00,
2013-06-22 03:32:00,63.3,63.3,30.43,NE,45,0.0,0.0,0,0.00,,,0.00,meteohub,2013-06-22 07:32:00,
2013-06-22 03:34:00,63.5,63.5,30.43,East,90,0.0,0.0,0,0.00,,,0.00,meteohub,2013-06-22 07:34:00,
2013-06-22 03:35:00,63.3,63.3,30.43,South,180,0.0,0.0,0,0.00,,,0.00,meteohub,2013-06-22 07:35:00,
2013-06-22 03:36:00,63.3,63.3,30.43,North,0,1.0,0.0,0,0.00,,,0.00,meteohub,2013-06-22 07:36:00,
2013-06-22 03:39:00,63.5,63.5,30.43,East,90,0.0,0.0,0,0.00,,,0.00,meteohub,2013-06-22 07:39:00,
2013-06-22 03:40:00,63.5,63.5,30.43,East,90,0.0,0.0,0,0.00,,,0.00,meteohub,2013-06-22 07:40:00,
2013-06-22 03:41:00,63.5,63.5,30.43,East,90,0.0,1.0,0,0.00,,,0.00,meteohub,2013-06-22 07:41:00,
2013-06-22 03:42:00,63.5,63.5,30.43,East,90,0.0,1.0,0,0.00,,,0.00,meteohub,2013-06-22 07:42:00,
2013-06-22 03:45:00,63.3,63.3,30.42,NE,45,1.0,1.0,0,0.00,,,0.00,meteohub,2013-06-22 07:45:00,
2013-06-22 03:46:00,63.3,63.3,30.43,NE,45,1.0,1.0,0,0.00,,,0.00,meteohub,2013-06-22 07:46:00,
2013-06-22 03:47:00,63.5,63.5,30.42,SE,135,1.0,1.0,0,0.00,,,0.00,meteohub,2013-06-22 07:47:00,
2013-06-22 03:48:00,63.5,63.5,30.42,SE,135,1.0,1.0,0,0.00,,,0.00,meteohub,2013-06-22 07:48:00,
2013-06-22 03:50:00,63.5,63.5,30.43,East,90,1.0,2.0,0,0.00,,,0.00,meteohub,2013-06-22 07:50:00,
2013-06-22 03:52:00,63.5,63.5,30.42,SE,135,2.0,2.0,0,0.00,,,0.00,meteohub,2013-06-22 07:52:00,
2013-06-22 03:53:00,63.5,63.5,30.43,WSW,248,1.0,2.0,0,0.00,,,0.00,meteohub,2013-06-22 07:53:00,
2013-06-22 03:54:00,63.5,63.5,30.43,NE,45,0.0,2.0,0,0.00,,,0.00,meteohub,2013-06-22 07:54:00,
2013-06-22 03:56:00,63.3,63.3,30.42,SE,135,0.0,2.0,0,0.00,,,0.00,meteohub,2013-06-22 07:56:00,
2013-06-22 03:57:00,63.3,63.3,30.42,North,0,0.0,2.0,0,0.00,,,0.00,meteohub,2013-06-22 07:57:00,
2013-06-22 03:59:00,63.1,63.1,30.42,SE,135,2.0,2.0,0,0.00,,,0.00,meteohub,2013-06-22 07:59:00,
2013-06-22 04:00:00,63.1,63.1,30.42,SE,135,2.0,2.0,0,0.00,,,0.00,meteohub,2013-06-22 08:00:00,
2013-06-22 04:01:00,63.1,63.1,30.42,East,90,2.0,2.0,0,0.00,,,0.00,meteohub,2013-06-22 08:01:00,
2013-06-22 04:03:00,63.0,63.0,30.42,NW,315,0.0,2.0,0,0.00,,,0.00,meteohub,2013-06-22 08:03:00,
2013-06-22 04:04:00,63.0,63.0,30.42,North,0,2.0,2.0,0,0.00,,,0.00,meteohub,2013-06-22 08:04:00,
2013-06-22 04:05:00,63.0,63.0,30.42,North,0,2.0,2.0,0,0.00,,,0.00,meteohub,2013-06-22 08:05:00,
2013-06-22 04:08:00,63.1,63.1,30.42,NE,45,2.0,2.0,0,0.00,,,0.00,meteohub,2013-06-22 08:08:00,
2013-06-22 04:10:00,63.1,63.1,30.42,South,180,0.0,2.0,0,0.00,,,0.00,meteohub,2013-06-22 08:10:00,
2013-06-22 04:12:00,63.1,5.7,30.42,NE,45,1.0,2.0,10,0.00,,,0.00,meteohub,2013-06-22 08:12:00,
2013-06-22 04:13:00,63.1,63.1,30.42,NE,45,1.0,2.0,0,0.00,,,0.00,meteohub,2013-06-22 08:13:00,
2013-06-22 04:14:00,63.1,63.1,30.42,NW,315,0.0,2.0,0,0.00,,,0.00,meteohub,2013-06-22 08:14:00,
2013-06-22 04:15:00,63.1,63.1,30.42,SE,135,0.0,2.0,0,0.00,,,0.00,meteohub,2013-06-22 08:15:00,
2013-06-22 04:16:00,63.1,63.1,30.42,SE,135,0.0,2.0,0,0.00,,,0.00,meteohub,2013-06-22 08:16:00,
2013-06-22 04:18:00,63.1,63.1,30.42,SE,135,0.0,2.0,0,0.00,,,0.00,meteohub,2013-06-22 08:18:00,
2013-06-22 04:19:00,63.1,63.1,30.43,SE,135,0.0,2.0,0,0.00,,,0.00,meteohub,2013-06-22 08:19:00,
2013-06-22 04:20:00,63.1,63.1,30.42,SE,135,0.0,2.0,0,0.00,,,0.00,meteohub,2013-06-22 08:20:00,
2013-06-22 04:21:00,62.8,62.8,30.42,South,180,0.0,2.0,0,0.00,,,0.00,meteohub,2013-06-22 08:21:00,
2013-06-22 04:23:00,62.8,62.8,30.42,South,180,0.0,2.0,0,0.00,,,0.00,meteohub,2013-06-22 08:23:00,
2013-06-22 04:24:00,62.8,5.4,30.42,East,90,2.0,2.0,10,0.00,,,0.00,meteohub,2013-06-22 08:24:00,
2013-06-22 04:26:00,62.6,5.2,30.42,South,180,0.0,2.0,10,0.00,,,0.00,meteohub,2013-06-22 08:26:00,
2013-06-22 04:29:00,62.6,7.3,30.42,SE,135,1.0,2.0,11,0.00,,,0.00,meteohub,2013-06-22 08:29:00,
2013-06-22 04:31:00,62.6,7.3,30.42,SE,135,0.0,2.0,11,0.00,,,0.00,meteohub,2013-06-22 08:31:00,
2013-06-22 04:32:00,62.4,7.2,30.42,SE,135,2.0,2.0,11,0.00,,,0.00,meteohub,2013-06-22 08:32:00,
2013-06-22 04:34:00,62.4,7.2,30.42,East,90,1.0,2.0,11,0.00,,,0.00,meteohub,2013-06-22 08:34:00,
2013-06-22 04:35:00,62.4,7.2,30.42,East,90,1.0,2.0,11,0.00,,,0.00,meteohub,2013-06-22 08:35:00,
2013-06-22 04:36:00,62.2,9.0,30.42,South,180,0.0,2.0,12,0.00,,,0.00,meteohub,2013-06-22 08:36:00,
2013-06-22 04:37:00,62.2,7.0,30.41,South,180,0.0,2.0,11,0.00,,,0.00,meteohub,2013-06-22 08:37:00,
2013-06-22 04:38:00,62.2,7.0,30.41,SE,135,1.0,2.0,11,0.00,,,0.00,meteohub,2013-06-22 08:38:00,
2013-06-22 04:39:00,62.2,9.0,30.41,NE,45,0.0,2.0,12,0.00,,,0.00,meteohub,2013-06-22 08:39:00,
2013-06-22 04:41:00,62.2,9.0,30.41,NE,45,0.0,2.0,12,0.00,,,0.00,meteohub,2013-06-22 08:41:00,
2013-06-22 04:42:00,62.2,9.0,30.42,South,180,0.0,2.0,12,0.00,,,0.00,meteohub,2013-06-22 08:42:00,
2013-06-22 04:44:00,62.1,8.8,30.41,SE,135,0.0,2.0,12,0.00,,,0.00,meteohub,2013-06-22 08:44:00,
2013-06-22 04:46:00,62.1,8.8,30.41,South,180,0.0,2.0,12,0.00,,,0.00,meteohub,2013-06-22 08:46:00,
2013-06-22 04:47:00,62.1,8.8,30.41,SE,135,0.0,2.0,12,0.00,,,0.00,meteohub,2013-06-22 08:47:00,
2013-06-22 04:48:00,61.9,8.6,30.41,South,180,0.0,2.0,12,0.00,,,0.00,meteohub,2013-06-22 08:48:00,
2013-06-22 04:49:00,61.9,8.6,30.41,South,180,0.0,2.0,12,0.00,,,0.00,meteohub,2013-06-22 08:49:00,
2013-06-22 04:51:00,61.9,10.4,30.41,WSW,248,0.0,2.0,13,0.00,,,0.00,meteohub,2013-06-22 08:51:00,
2013-06-22 04:52:00,61.9,10.4,30.41,SE,135,0.0,2.0,13,0.00,,,0.00,meteohub,2013-06-22 08:52:00,
2013-06-22 04:53:00,61.9,10.4,30.41,South,180,0.0,2.0,13,0.00,,,0.00,meteohub,2013-06-22 08:53:00,
2013-06-22 04:55:00,61.9,10.4,30.41,NE,45,1.0,2.0,13,0.00,,,0.00,meteohub,2013-06-22 08:55:00,
2013-06-22 04:56:00,61.9,10.4,30.41,SE,135,1.0,2.0,13,0.00,,,0.00,meteohub,2013-06-22 08:56:00,
2013-06-22 04:58:00,61.9,12.2,30.41,South,180,0.0,2.0,14,0.00,,,0.00,meteohub,2013-06-22 08:58:00,
2013-06-22 04:59:00,61.9,12.2,30.42,North,0,1.0,2.0,14,0.00,,,0.00,meteohub,2013-06-22 08:59:00,
2013-06-22 05:00:00,61.9,12.2,30.41,North,0,0.0,2.0,14,0.00,,,0.00,meteohub,2013-06-22 09:00:00,
2013-06-22 05:02:00,61.9,12.2,30.42,South,180,2.0,2.0,14,0.00,,,0.00,meteohub,2013-06-22 09:02:00,
2013-06-22 05:03:00,61.9,12.2,30.41,South,180,0.0,1.0,14,0.00,,,0.00,meteohub,2013-06-22 09:03:00,
2013-06-22 05:04:00,61.9,12.2,30.41,South,180,0.0,1.0,14,0.00,,,0.00,meteohub,2013-06-22 09:04:00,
2013-06-22 05:05:00,61.9,12.2,30.41,East,90,0.0,1.0,14,0.00,,,0.00,meteohub,2013-06-22 09:05:00,
2013-06-22 05:06:00,61.9,12.2,30.41,East,90,0.0,1.0,14,0.00,,,0.00,meteohub,2013-06-22 09:06:00,
2013-06-22 05:08:00,61.9,12.2,30.41,East,90,2.0,2.0,14,0.00,,,0.00,meteohub,2013-06-22 09:08:00,
2013-06-22 05:09:00,61.9,13.6,30.41,SE,135,2.0,2.0,15,0.00,,,0.00,meteohub,2013-06-22 09:09:00,
2013-06-22 05:10:00,61.9,13.6,30.41,SE,135,2.0,2.0,15,0.00,,,0.00,meteohub,2013-06-22 09:10:00,
2013-06-22 05:11:00,62.1,13.8,30.41,South,180,2.0,2.0,15,0.00,,,0.00,meteohub,2013-06-22 09:11:00,
2013-06-22 05:12:00,62.1,13.8,30.41,South,180,2.0,2.0,15,0.00,,,0.00,meteohub,2013-06-22 09:12:00,
2013-06-22 05:14:00,62.1,13.8,30.41,South,180,1.0,2.0,15,0.00,,,0.00,meteohub,2013-06-22 09:14:00,
2013-06-22 05:15:00,62.1,13.8,30.41,SE,135,0.0,2.0,15,0.00,,,0.00,meteohub,2013-06-22 09:15:00,
2013-06-22 05:16:00,62.1,13.8,30.41,SE,135,0.0,2.0,15,0.00,,,0.00,meteohub,2013-06-22 09:16:00,
2013-06-22 05:17:00,62.1,13.8,30.41,SE,135,0.0,2.0,15,0.00,,,0.00,meteohub,2013-06-22 09:17:00,
2013-06-22 05:20:00,62.1,13.8,30.41,SE,135,0.0,2.0,15,0.00,,,0.00,meteohub,2013-06-22 09:20:00,
2013-06-22 05:21:00,62.1,13.8,30.41,South,180,2.0,2.0,15,0.00,,,0.00,meteohub,2013-06-22 09:21:00,
2013-06-22 05:22:00,62.1,13.8,30.41,South,180,2.0,2.0,15,0.00,,,0.00,meteohub,2013-06-22 09:22:00,
2013-06-22 05:25:00,62.2,14.0,30.41,South,180,0.0,2.0,15,0.00,,,0.00,meteohub,2013-06-22 09:25:00,
2013-06-22 05:27:00,62.2,14.0,30.41,SE,135,0.0,2.0,15,0.00,,,0.00,meteohub,2013-06-22 09:27:00,
2013-06-22 05:28:00,62.2,14.0,30.41,SE,135,0.0,2.0,15,0.00,,,0.00,meteohub,2013-06-22 09:28:00,
2013-06-22 05:32:00,62.2,14.0,30.41,South,180,0.0,2.0,15,0.00,,,0.00,meteohub,2013-06-22 09:32:00,
2013-06-22 05:33:00,62.2,14.0,30.41,South,180,1.0,2.0,15,0.00,,,0.00,meteohub,2013-06-22 09:33:00,
2013-06-22 05:34:00,62.2,14.0,30.41,South,180,1.0,2.0,15,0.00,,,0.00,meteohub,2013-06-22 09:34:00,
2013-06-22 05:37:00,62.2,14.0,30.40,SE,135,1.0,2.0,15,0.00,,,0.00,meteohub,2013-06-22 09:37:00,
2013-06-22 05:38:00,62.2,14.0,30.41,SE,135,0.0,2.0,15,0.00,,,0.00,meteohub,2013-06-22 09:38:00,
2013-06-22 05:39:00,62.2,14.0,30.41,SE,135,0.0,2.0,15,0.00,,,0.00,meteohub,2013-06-22 09:39:00,
2013-06-22 05:40:00,62.4,14.2,30.40,East,90,2.0,2.0,15,0.00,,,0.00,meteohub,2013-06-22 09:40:00,
2013-06-22 05:42:00,62.4,14.2,30.40,SE,135,1.0,2.0,15,0.00,,,0.00,meteohub,2013-06-22 09:42:00,
2013-06-22 05:44:00,62.4,14.2,30.41,South,180,0.0,2.0,15,0.00,,,0.00,meteohub,2013-06-22 09:44:00,
2013-06-22 05:45:00,62.4,14.2,30.40,WSW,248,2.0,2.0,15,0.00,,,0.00,meteohub,2013-06-22 09:45:00,
2013-06-22 05:48:00,62.4,14.2,30.41,South,180,0.0,2.0,15,0.00,,,0.00,meteohub,2013-06-22 09:48:00,
2013-06-22 05:49:00,62.4,12.6,30.40,South,180,0.0,2.0,14,0.00,,,0.00,meteohub,2013-06-22 09:49:00,
2013-06-22 05:51:00,62.4,12.6,30.41,South,180,0.0,2.0,14,0.00,,,0.00,meteohub,2013-06-22 09:51:00,
2013-06-22 05:52:00,62.4,12.6,30.40,East,90,0.0,2.0,14,0.00,,,0.00,meteohub,2013-06-22 09:52:00,
2013-06-22 05:54:00,62.4,12.6,30.40,South,180,0.0,2.0,14,0.00,,,0.00,meteohub,2013-06-22 09:54:00,
2013-06-22 05:55:00,62.4,12.6,30.40,South,180,0.0,2.0,14,0.00,,,0.00,meteohub,2013-06-22 09:55:00,
2013-06-22 05:57:00,62.4,12.6,30.40,South,180,0.0,2.0,14,0.00,,,0.00,meteohub,2013-06-22 09:57:00,
2013-06-22 05:58:00,62.4,12.6,30.40,East,90,0.0,2.0,14,0.00,,,0.00,meteohub,2013-06-22 09:58:00,
2013-06-22 05:59:00,62.4,12.6,30.40,SE,135,0.0,2.0,14,0.00,,,0.00,meteohub,2013-06-22 09:59:00,
2013-06-22 06:00:00,62.2,12.4,30.40,SE,135,1.0,2.0,14,0.00,,,0.00,meteohub,2013-06-22 10:00:00,
2013-06-22 06:03:00,62.2,12.4,30.40,WSW,248,1.0,2.0,14,0.00,,,0.00,meteohub,2013-06-22 10:03:00,
2013-06-22 06:04:00,62.2,12.4,30.40,WSW,248,1.0,2.0,14,0.00,,,0.00,meteohub,2013-06-22 10:04:00,
2013-06-22 06:05:00,62.4,12.6,30.40,South,180,2.0,2.0,14,0.00,,,0.00,meteohub,2013-06-22 10:05:00,
2013-06-22 06:08:00,62.6,14.4,30.40,NW,315,0.0,1.0,15,0.00,,,0.00,meteohub,2013-06-22 10:08:00,
2013-06-22 06:09:00,62.8,14.4,30.40,South,180,3.0,3.0,15,0.00,,,0.00,meteohub,2013-06-22 10:09:00,
2013-06-22 06:11:00,62.8,14.4,30.40,South,180,0.0,4.0,15,0.00,,,0.00,meteohub,2013-06-22 10:11:00,
2013-06-22 06:13:00,63.0,12.9,30.40,South,180,0.0,4.0,14,0.00,,,0.00,meteohub,2013-06-22 10:13:00,
2013-06-22 06:14:00,63.0,12.9,30.40,East,90,1.0,4.0,14,0.00,,,0.00,meteohub,2013-06-22 10:14:00,
2013-06-22 06:15:00,63.0,12.9,30.40,East,90,1.0,4.0,14,0.00,,,0.00,meteohub,2013-06-22 10:15:00,
2013-06-22 06:16:00,63.0,12.9,30.40,East,90,1.0,4.0,14,0.00,,,0.00,meteohub,2013-06-22 10:16:00,
2013-06-22 06:17:00,63.0,12.9,30.40,South,180,1.0,4.0,14,0.00,,,0.00,meteohub,2013-06-22 10:17:00,
2013-06-22 06:18:00,63.1,13.1,30.40,SE,135,1.0,4.0,14,0.00,,,0.00,meteohub,2013-06-22 10:18:00,
2013-06-22 06:20:00,63.1,13.1,30.40,SE,135,1.0,4.0,14,0.00,,,0.00,meteohub,2013-06-22 10:20:00,
2013-06-22 06:21:00,63.1,11.5,30.40,East,90,0.0,4.0,13,0.00,,,0.00,meteohub,2013-06-22 10:21:00,
2013-06-22 06:22:00,63.1,11.5,30.40,East,90,0.0,4.0,13,0.00,,,0.00,meteohub,2013-06-22 10:22:00,
2013-06-22 06:25:00,63.3,11.7,30.41,North,0,1.0,4.0,13,0.00,,,0.00,meteohub,2013-06-22 10:25:00,
2013-06-22 06:26:00,63.3,11.7,30.40,NE,45,0.0,3.0,13,0.00,,,0.00,meteohub,2013-06-22 10:26:00,
2013-06-22 06:27:00,63.3,11.7,30.40,WSW,248,1.0,3.0,13,0.00,,,0.00,meteohub,2013-06-22 10:27:00,
2013-06-22 06:28:00,63.3,11.7,30.40,WSW,248,1.0,3.0,13,0.00,,,0.00,meteohub,2013-06-22 10:28:00,
2013-06-22 06:30:00,63.5,11.8,30.40,SE,135,1.0,3.0,13,0.00,,,0.00,meteohub,2013-06-22 10:30:00,
2013-06-22 06:31:00,63.5,11.8,30.40,SE,135,1.0,2.0,13,0.00,,,0.00,meteohub,2013-06-22 10:31:00,
2013-06-22 06:32:00,63.5,10.0,30.40,SE,135,1.0,2.0,12,0.00,,,0.00,meteohub,2013-06-22 10:32:00,
2013-06-22 06:34:00,63.7,10.0,30.41,South,180,1.0,2.0,12,0.00,,,0.00,meteohub,2013-06-22 10:34:00,
2013-06-22 06:35:00,63.7,10.0,30.41,SE,135,1.0,2.0,12,0.00,,,0.00,meteohub,2013-06-22 10:35:00,
2013-06-22 06:36:00,63.7,10.0,30.40,SE,135,0.0,2.0,12,0.00,,,0.00,meteohub,2013-06-22 10:36:00,
2013-06-22 06:37:00,63.7,8.2,30.41,South,180,2.0,2.0,11,0.00,,,0.00,meteohub,2013-06-22 10:37:00,
2013-06-22 06:38:00,63.7,8.2,30.41,South,180,2.0,2.0,11,0.00,,,0.00,meteohub,2013-06-22 10:38:00,
2013-06-22 06:40:00,63.9,8.2,30.41,SE,135,1.0,2.0,11,0.00,,,0.00,meteohub,2013-06-22 10:40:00,
2013-06-22 06:41:00,63.9,8.2,30.41,SE,135,2.0,2.0,11,0.00,,,0.00,meteohub,2013-06-22 10:41:00,
2013-06-22 06:44:00,64.2,6.4,30.41,SE,135,1.0,2.0,10,0.00,,,0.00,meteohub,2013-06-22 10:44:00,
2013-06-22 06:45:00,64.2,6.4,30.41,SE,135,0.0,2.0,10,0.00,,,0.00,meteohub,2013-06-22 10:45:00,
2013-06-22 06:47:00,64.2,64.2,30.41,SE,135,0.0,2.0,0,0.00,,,0.00,meteohub,2013-06-22 10:47:00,
2013-06-22 06:49:00,64.4,64.4,30.41,South,180,0.0,2.0,0,0.00,,,0.00,meteohub,2013-06-22 10:49:00,
2013-06-22 06:51:00,64.4,64.4,30.41,SE,135,0.0,2.0,0,0.00,,,0.00,meteohub,2013-06-22 10:51:00,
2013-06-22 06:52:00,64.4,64.4,30.41,South,180,0.0,2.0,0,0.00,,,0.00,meteohub,2013-06-22 10:52:00,
2013-06-22 06:54:00,64.6,64.6,30.41,South,180,0.0,2.0,0,0.00,,,0.00,meteohub,2013-06-22 10:54:00,
2013-06-22 06:56:00,64.8,64.8,30.41,NE,45,1.0,2.0,0,0.00,,,0.00,meteohub,2013-06-22 10:56:00,
2013-06-22 06:57:00,64.9,64.9,30.41,SE,135,2.0,2.0,0,0.00,,,0.00,meteohub,2013-06-22 10:57:00,
2013-06-22 06:58:00,64.9,64.9,30.41,SE,135,0.0,2.0,0,0.00,,,0.00,meteohub,2013-06-22 10:58:00,
2013-06-22 07:00:00,65.5,65.5,30.41,SE,135,2.0,2.0,0,0.00,,,0.00,meteohub,2013-06-22 11:00:00,
2013-06-22 07:01:00,65.5,65.5,30.41,SE,135,2.0,2.0,0,0.00,,,0.00,meteohub,2013-06-22 11:01:00,
2013-06-22 07:02:00,66.0,66.0,30.42,South,180,2.0,2.0,0,0.00,,,0.00,meteohub,2013-06-22 11:02:00,
2013-06-22 07:03:00,66.0,66.0,30.42,South,180,2.0,2.0,0,0.00,,,0.00,meteohub,2013-06-22 11:03:00,
2013-06-22 07:07:00,67.1,67.1,30.42,South,180,0.0,2.0,0,0.00,,,0.00,meteohub,2013-06-22 11:07:00,
2013-06-22 07:08:00,67.3,67.3,30.42,SE,135,2.0,2.0,0,0.00,,,0.00,meteohub,2013-06-22 11:08:00,
2013-06-22 07:12:00,68.2,68.2,30.42,WSW,248,1.0,2.0,0,0.00,,,0.00,meteohub,2013-06-22 11:12:00,
2013-06-22 07:13:00,68.4,68.4,30.42,South,180,3.0,3.0,0,0.00,,,0.00,meteohub,2013-06-22 11:13:00,
2013-06-22 07:14:00,68.5,68.5,30.42,East,90,4.0,4.0,0,0.00,,,0.00,meteohub,2013-06-22 11:14:00,
2013-06-22 07:17:00,69.1,69.1,30.42,South,180,1.0,3.0,0,0.00,,,0.00,meteohub,2013-06-22 11:17:00,
2013-06-22 07:18:00,69.4,69.4,30.42,South,180,0.0,3.0,0,0.00,,,0.00,meteohub,2013-06-22 11:18:00,
2013-06-22 07:19:00,69.4,69.4,30.42,South,180,0.0,3.0,0,0.00,,,0.00,meteohub,2013-06-22 11:19:00,
2013-06-22 07:23:00,69.8,69.8,30.42,South,180,1.0,4.0,0,0.00,,,0.00,meteohub,2013-06-22 11:23:00,
2013-06-22 07:24:00,69.8,69.8,30.42,NW,315,2.0,4.0,0,0.00,,,0.00,meteohub,2013-06-22 11:24:00,
2013-06-22 07:25:00,70.0,70.0,30.42,South,180,2.0,4.0,0,0.00,,,0.00,meteohub,2013-06-22 11:25:00,
2013-06-22 07:29:00,70.2,70.2,30.42,WSW,248,4.0,4.0,0,0.00,,,0.00,meteohub,2013-06-22 11:29:00,
2013-06-22 07:30:00,70.2,70.2,30.43,South,180,4.0,4.0,0,0.00,,,0.00,meteohub,2013-06-22 11:30:00,
2013-06-22 07:31:00,70.2,70.2,30.43,South,180,4.0,4.0,0,0.00,,,0.00,meteohub,2013-06-22 11:31:00,
2013-06-22 07:35:00,70.5,70.5,30.42,WSW,248,2.0,4.0,0,0.00,,,0.00,meteohub,2013-06-22 11:35:00,
2013-06-22 07:36:00,70.5,70.5,30.42,South,180,3.0,4.0,0,0.00,,,0.00,meteohub,2013-06-22 11:36:00,
2013-06-22 07:37:00,70.5,70.5,30.43,WNW,293,1.0,4.0,0,0.00,,,0.00,meteohub,2013-06-22 11:37:00,
2013-06-22 07:39:00,70.7,70.7,30.43,South,180,2.0,4.0,0,0.00,,,0.00,meteohub,2013-06-22 11:39:00,
2013-06-22 07:40:00,70.9,70.9,30.43,South,180,1.0,4.0,0,0.00,,,0.00,meteohub,2013-06-22 11:40:00,
2013-06-22 07:42:00,71.1,71.1,30.43,South,180,3.0,4.0,0,0.00,,,0.00,meteohub,2013-06-22 11:42:00,
2013-06-22 07:44:00,71.2,71.2,30.43,WSW,248,2.0,4.0,0,0.00,,,0.00,meteohub,2013-06-22 11:44:00,
2013-06-22 07:46:00,71.2,71.2,30.43,South,180,2.0,4.0,0,0.00,,,0.00,meteohub,2013-06-22 11:46:00,
2013-06-22 07:48:00,71.4,71.4,30.43,South,180,3.0,4.0,0,0.00,,,0.00,meteohub,2013-06-22 11:48:00,
2013-06-22 07:49:00,71.4,71.4,30.43,South,180,2.0,4.0,0,0.00,,,0.00,meteohub,2013-06-22 11:49:00,
2013-06-22 07:50:00,71.4,71.4,30.43,South,180,2.0,5.0,0,0.00,,,0.00,meteohub,2013-06-22 11:50:00,
2013-06-22 07:51:00,71.4,71.4,30.43,South,180,2.0,5.0,0,0.00,,,0.00,meteohub,2013-06-22 11:51:00,
2013-06-22 07:53:00,71.2,71.2,30.43,SE,135,3.0,5.0,0,0.00,,,0.00,meteohub,2013-06-22 11:53:00,
2013-06-22 07:55:00,71.4,71.4,30.43,WSW,248,2.0,5.0,0,0.00,,,0.00,meteohub,2013-06-22 11:55:00,
2013-06-22 07:56:00,71.4,71.4,30.43,SE,135,2.0,5.0,0,0.00,,,0.00,meteohub,2013-06-22 11:56:00,
2013-06-22 07:58:00,71.4,71.4,30.43,West,270,3.0,5.0,0,0.00,,,0.00,meteohub,2013-06-22 11:58:00,
2013-06-22 08:00:00,71.6,71.6,30.44,South,180,2.0,5.0,0,0.00,,,0.00,meteohub,2013-06-22 12:00:00,
2013-06-22 08:01:00,71.6,71.6,30.43,South,180,2.0,5.0,0,0.00,,,0.00,meteohub,2013-06-22 12:01:00,
2013-06-22 08:02:00,71.6,71.6,30.43,South,180,0.0,5.0,0,0.00,,,0.00,meteohub,2013-06-22 12:02:00,
2013-06-22 08:03:00,71.8,71.8,30.43,SE,135,2.0,5.0,0,0.00,,,0.00,meteohub,2013-06-22 12:03:00,
2013-06-22 08:06:00,72.1,72.1,30.44,South,180,2.0,4.0,0,0.00,,,0.00,meteohub,2013-06-22 12:06:00,
2013-06-22 08:07:00,72.1,72.1,30.44,South,180,2.0,4.0,0,0.00,,,0.00,meteohub,2013-06-22 12:07:00,
2013-06-22 08:09:00,72.3,72.3,30.44,South,180,3.0,4.0,0,0.00,,,0.00,meteohub,2013-06-22 12:09:00,
2013-06-22 08:11:00,72.5,72.5,30.44,South,180,3.0,4.0,0,0.00,,,0.00,meteohub,2013-06-22 12:11:00,
2013-06-22 08:12:00,72.5,72.5,30.44,South,180,2.0,4.0,0,0.00,,,0.00,meteohub,2013-06-22 12:12:00,
2013-06-22 08:14:00,72.7,72.7,30.44,WSW,248,3.0,4.0,0,0.00,,,0.00,meteohub,2013-06-22 12:14:00,
2013-06-22 08:16:00,72.7,72.7,30.44,NW,315,3.0,3.0,0,0.00,,,0.00,meteohub,2013-06-22 12:16:00,
2013-06-22 08:17:00,72.7,72.7,30.44,SE,135,2.0,3.0,0,0.00,,,0.00,meteohub,2013-06-22 12:17:00,
2013-06-22 08:18:00,72.7,72.7,30.44,South,180,3.0,3.0,0,0.00,,,0.00,meteohub,2013-06-22 12:18:00,
2013-06-22 08:20:00,72.7,72.7,30.44,South,180,3.0,3.0,0,0.00,,,0.00,meteohub,2013-06-22 12:20:00,
2013-06-22 08:22:00,72.7,72.7,30.45,South,180,4.0,4.0,0,0.00,,,0.00,meteohub,2013-06-22 12:22:00,
2013-06-22 08:23:00,72.7,72.7,30.45,South,180,4.0,4.0,0,0.00,,,0.00,meteohub,2013-06-22 12:23:00,
2013-06-22 08:25:00,72.7,72.7,30.45,SE,135,3.0,3.0,0,0.00,,,0.00,meteohub,2013-06-22 12:25:00,
2013-06-22 08:26:00,72.7,72.7,30.45,SE,135,2.0,4.0,0,0.00,,,0.00,meteohub,2013-06-22 12:26:00,
2013-06-22 08:28:00,72.9,72.9,30.45,SE,135,3.0,4.0,0,0.00,,,0.00,meteohub,2013-06-22 12:28:00,
2013-06-22 08:30:00,72.9,72.9,30.45,WSW,248,4.0,4.0,0,0.00,,,0.00,meteohub,2013-06-22 12:30:00,
2013-06-22 08:32:00,72.9,72.9,30.45,WSW,248,4.0,4.0,0,0.00,,,0.00,meteohub,2013-06-22 12:32:00,
2013-06-22 08:33:00,72.9,72.9,30.45,South,180,5.0,5.0,0,0.00,,,0.00,meteohub,2013-06-22 12:33:00,
2013-06-22 08:34:00,72.9,72.9,30.45,South,180,4.0,4.0,0,0.00,,,0.00,meteohub,2013-06-22 12:34:00,
2013-06-22 08:36:00,73.0,73.0,30.45,SE,135,2.0,4.0,0,0.00,,,0.00,meteohub,2013-06-22 12:36:00,
2013-06-22 08:37:00,73.0,73.0,30.45,WSW,248,2.0,4.0,0,0.00,,,0.00,meteohub,2013-06-22 12:37:00,
2013-06-22 08:39:00,73.4,73.4,30.45,South,180,6.0,6.0,0,0.00,,,0.00,meteohub,2013-06-22 12:39:00,
2013-06-22 08:40:00,73.4,73.4,30.45,South,180,4.0,4.0,0,0.00,,,0.00,meteohub,2013-06-22 12:40:00,
2013-06-22 08:41:00,73.6,73.6,30.45,SE,135,1.0,6.0,0,0.00,,,0.00,meteohub,2013-06-22 12:41:00,
2013-06-22 08:43:00,73.8,73.8,30.45,South,180,3.0,6.0,0,0.00,,,0.00,meteohub,2013-06-22 12:43:00,
2013-06-22 08:44:00,73.8,73.8,30.46,WSW,248,4.0,6.0,0,0.00,,,0.00,meteohub,2013-06-22 12:44:00,
2013-06-22 08:45:00,73.8,73.8,30.45,South,180,5.0,6.0,0,0.00,,,0.00,meteohub,2013-06-22 12:45:00,
2013-06-22 08:46:00,73.6,73.6,30.46,WSW,248,2.0,6.0,0,0.00,,,0.00,meteohub,2013-06-22 12:46:00,
2013-06-22 08:48:00,73.8,73.8,30.45,South,180,2.0,6.0,0,0.00,,,0.00,meteohub,2013-06-22 12:48:00,
2013-06-22 08:50:00,73.9,73.9,30.45,South,180,2.0,6.0,0,0.00,,,0.00,meteohub,2013-06-22 12:50:00,
2013-06-22 08:52:00,73.9,73.9,30.45,NW,315,4.0,6.0,0,0.00,,,0.00,meteohub,2013-06-22 12:52:00,
2013-06-22 08:53:00,73.9,73.9,30.46,East,90,2.0,6.0,0,0.00,,,0.00,meteohub,2013-06-22 12:53:00,
2013-06-22 08:55:00,74.1,74.1,30.46,South,180,3.0,5.0,0,0.00,,,0.00,meteohub,2013-06-22 12:55:00,
2013-06-22 08:56:00,74.3,74.3,30.46,SE,135,2.0,5.0,0,0.00,,,0.00,meteohub,2013-06-22 12:56:00,
2013-06-22 08:57:00,74.3,74.3,30.46,South,180,2.0,5.0,0,0.00,,,0.00,meteohub,2013-06-22 12:57:00,
2013-06-22 08:59:00,74.7,74.7,30.46,WSW,248,1.0,5.0,0,0.00,,,0.00,meteohub,2013-06-22 12:59:00,
2013-06-22 09:01:00,75.2,75.2,30.46,WSW,248,2.0,5.0,0,0.00,,,0.00,meteohub,2013-06-22 13:01:00,
2013-06-22 09:02:00,75.2,75.2,30.47,WSW,248,2.0,5.0,0,0.00,,,0.00,meteohub,2013-06-22 13:02:00,
2013-06-22 09:03:00,75.2,75.2,30.46,WSW,248,2.0,5.0,0,0.00,,,0.00,meteohub,2013-06-22 13:03:00,
2013-06-22 09:05:00,75.2,75.2,30.46,WSW,248,2.0,5.0,0,0.00,,,0.00,meteohub,2013-06-22 13:05:00,
2013-06-22 09:07:00,75.2,75.2,30.46,WSW,248,2.0,5.0,0,0.00,,,0.00,meteohub,2013-06-22 13:07:00,
2013-06-22 09:08:00,76.3,76.3,30.46,South,180,5.0,5.0,0,0.00,,,0.00,meteohub,2013-06-22 13:08:00,
2013-06-22 09:09:00,76.3,76.3,30.47,WSW,248,3.0,5.0,0,0.00,,,0.00,meteohub,2013-06-22 13:09:00,
2013-06-22 09:10:00,76.1,76.1,30.47,South,180,3.0,5.0,0,0.00,,,0.00,meteohub,2013-06-22 13:10:00,
2013-06-22 09:12:00,76.1,76.1,30.46,South,180,4.0,5.0,0,0.00,,,0.00,meteohub,2013-06-22 13:12:00,
2013-06-22 09:13:00,76.3,76.3,30.47,WSW,248,2.0,5.0,0,0.00,,,0.00,meteohub,2013-06-22 13:13:00,
2013-06-22 09:14:00,76.3,76.3,30.47,West,270,3.0,5.0,0,0.00,,,0.00,meteohub,2013-06-22 13:14:00,
2013-06-22 09:16:00,76.3,76.3,30.47,North,0,2.0,5.0,0,0.00,,,0.00,meteohub,2013-06-22 13:16:00,
2013-06-22 09:17:00,76.5,76.5,30.47,WSW,248,2.0,5.0,0,0.00,,,0.00,meteohub,2013-06-22 13:17:00,
2013-06-22 09:18:00,76.6,76.6,30.46,WSW,248,2.0,5.0,0,0.00,,,0.00,meteohub,2013-06-22 13:18:00,
2013-06-22 09:19:00,76.8,76.8,30.47,SE,135,2.0,5.0,0,0.00,,,0.00,meteohub,2013-06-22 13:19:00,
2013-06-22 09:20:00,77.0,77.0,30.47,South,180,4.0,5.0,0,0.00,,,0.00,meteohub,2013-06-22 13:20:00,
2013-06-22 09:21:00,77.0,77.0,30.47,South,180,3.0,5.0,0,0.00,,,0.00,meteohub,2013-06-22 13:21:00,
2013-06-22 09:23:00,77.4,77.4,30.47,East,90,2.0,5.0,0,0.00,,,0.00,meteohub,2013-06-22 13:23:00,
2013-06-22 09:24:00,77.5,77.5,30.47,South,180,2.0,5.0,0,0.00,,,0.00,meteohub,2013-06-22 13:24:00,
2013-06-22 09:26:00,77.7,77.7,30.47,West,270,3.0,5.0,0,0.00,,,0.00,meteohub,2013-06-22 13:26:00,
2013-06-22 09:28:00,77.9,77.9,30.47,NW,315,2.0,5.0,0,0.00,,,0.00,meteohub,2013-06-22 13:28:00,
2013-06-22 09:30:00,78.3,78.3,30.47,WSW,248,4.0,5.0,0,0.00,,,0.00,meteohub,2013-06-22 13:30:00,
2013-06-22 09:31:00,78.3,78.3,30.47,NW,315,2.0,4.0,0,0.00,,,0.00,meteohub,2013-06-22 13:31:00,
2013-06-22 09:32:00,78.3,78.3,30.47,WSW,248,2.0,4.0,0,0.00,,,0.00,meteohub,2013-06-22 13:32:00,
2013-06-22 09:35:00,78.4,78.4,30.47,WSW,248,4.0,4.0,0,0.00,,,0.00,meteohub,2013-06-22 13:35:00,
2013-06-22 09:36:00,78.3,78.3,30.47,NW,315,4.0,4.0,0,0.00,,,0.00,meteohub,2013-06-22 13:36:00,
2013-06-22 09:37:00,78.3,78.3,30.47,NW,315,3.0,4.0,0,0.00,,,0.00,meteohub,2013-06-22 13:37:00,
2013-06-22 09:40:00,78.3,78.3,30.47,South,180,5.0,5.0,0,0.00,,,0.00,meteohub,2013-06-22 13:40:00,
2013-06-22 09:41:00,78.3,78.3,30.47,South,180,3.0,5.0,0,0.00,,,0.00,meteohub,2013-06-22 13:41:00,
2013-06-22 09:42:00,78.3,78.3,30.47,West,270,2.0,5.0,0,0.00,,,0.00,meteohub,2013-06-22 13:42:00,
2013-06-22 09:45:00,78.8,78.8,30.47,West,270,6.0,6.0,0,0.00,,,0.00,meteohub,2013-06-22 13:45:00,
2013-06-22 09:46:00,78.6,78.6,30.47,South,180,4.0,5.0,0,0.00,,,0.00,meteohub,2013-06-22 13:46:00,
2013-06-22 09:47:00,78.6,78.6,30.47,South,180,4.0,5.0,0,0.00,,,0.00,meteohub,2013-06-22 13:47:00,
2013-06-22 09:50:00,79.0,79.0,30.47,South,180,2.0,5.0,0,0.00,,,0.00,meteohub,2013-06-22 13:50:00,
2013-06-22 09:51:00,79.2,79.2,30.47,WSW,248,4.0,6.0,0,0.00,,,0.00,meteohub,2013-06-22 13:51:00,
2013-06-22 09:52:00,79.0,79.0,30.46,SE,135,4.0,6.0,0,0.00,,,0.00,meteohub,2013-06-22 13:52:00,
2013-06-22 09:53:00,79.0,79.0,30.46,SE,135,4.0,6.0,0,0.00,,,0.00,meteohub,2013-06-22 13:53:00,
2013-06-22 09:55:00,79.0,79.0,30.47,WSW,248,7.0,7.0,0,0.00,,,0.00,meteohub,2013-06-22 13:55:00,
2013-06-22 09:57:00,78.6,78.6,30.46,WSW,248,3.0,7.0,0,0.00,,,0.00,meteohub,2013-06-22 13:57:00,
2013-06-22 09:58:00,78.6,78.6,30.46,SE,135,2.0,7.0,0,0.00,,,0.00,meteohub,2013-06-22 13:58:00,
2013-06-22 09:59:00,78.8,78.8,30.46,NW,315,2.0,7.0,0,0.00,,,0.00,meteohub,2013-06-22 13:59:00,
2013-06-22 10:00:00,79.0,79.0,30.46,WSW,248,2.0,7.0,0,0.00,,,0.00,meteohub,2013-06-22 14:00:00,
2013-06-22 10:02:00,79.0,79.0,30.46,WSW,248,2.0,7.0,0,0.00,,,0.00,meteohub,2013-06-22 14:02:00,
2013-06-22 10:03:00,79.0,79.0,30.46,WSW,248,2.0,7.0,0,0.00,,,0.00,meteohub,2013-06-22 14:03:00,
2013-06-22 10:04:00,79.0,79.0,30.46,WSW,248,2.0,7.0,0,0.00,,,0.00,meteohub,2013-06-22 14:04:00,
2013-06-22 10:05:00,79.0,79.0,30.46,WSW,248,2.0,7.0,0,0.00,,,0.00,meteohub,2013-06-22 14:05:00,
2013-06-22 10:08:00,79.5,79.5,30.46,NW,315,4.0,7.0,0,0.00,,,0.00,meteohub,2013-06-22 14:08:00,
2013-06-22 10:09:00,79.5,79.5,30.46,NW,315,3.0,7.0,0,0.00,,,0.00,meteohub,2013-06-22 14:09:00,
2013-06-22 10:11:00,79.7,79.7,30.46,NW,315,4.0,6.0,0,0.00,,,0.00,meteohub,2013-06-22 14:11:00,
2013-06-22 10:12:00,79.9,79.9,30.46,SE,135,4.0,6.0,0,0.00,,,0.00,meteohub,2013-06-22 14:12:00,
2013-06-22 10:13:00,80.1,80.1,30.46,SE,135,5.0,6.0,0,0.00,,,0.00,meteohub,2013-06-22 14:13:00,
2013-06-22 10:14:00,80.1,80.1,30.46,West,270,2.0,6.0,0,0.00,,,0.00,meteohub,2013-06-22 14:14:00,
2013-06-22 10:15:00,80.1,80.1,30.46,West,270,2.0,6.0,0,0.00,,,0.00,meteohub,2013-06-22 14:15:00,
2013-06-22 10:16:00,80.1,80.1,30.46,West,270,4.0,5.0,0,0.00,,,0.00,meteohub,2013-06-22 14:16:00,
2013-06-22 10:17:00,80.1,80.1,30.46,WSW,248,2.0,5.0,0,0.00,,,0.00,meteohub,2013-06-22 14:17:00,
2013-06-22 10:18:00,80.2,80.2,30.46,South,180,5.0,5.0,0,0.00,,,0.00,meteohub,2013-06-22 14:18:00,
2013-06-22 10:19:00,80.4,80.4,30.46,WSW,248,4.0,5.0,0,0.00,,,0.00,meteohub,2013-06-22 14:19:00,
2013-06-22 10:21:00,80.2,80.2,30.46,South,180,4.0,5.0,0,0.00,,,0.00,meteohub,2013-06-22 14:21:00,
2013-06-22 10:23:00,80.1,80.1,30.46,South,180,3.0,5.0,0,0.00,,,0.00,meteohub,2013-06-22 14:23:00,
2013-06-22 10:25:00,80.2,80.2,30.46,WSW,248,3.0,5.0,0,0.00,,,0.00,meteohub,2013-06-22 14:25:00,
2013-06-22 10:27:00,80.4,80.4,30.46,South,180,4.0,5.0,0,0.00,,,0.00,meteohub,2013-06-22 14:27:00,
2013-06-22 10:28:00,80.2,80.2,30.46,WSW,248,3.0,5.0,0,0.00,,,0.00,meteohub,2013-06-22 14:28:00,
2013-06-22 10:30:00,80.2,80.2,30.46,WSW,248,2.0,5.0,0,0.00,,,0.00,meteohub,2013-06-22 14:30:00,
2013-06-22 10:32:00,80.2,80.2,30.46,North,0,4.0,5.0,0,0.00,,,0.00,meteohub,2013-06-22 14:32:00,
2013-06-22 10:33:00,80.2,80.2,30.46,South,180,2.0,5.0,0,0.00,,,0.00,meteohub,2013-06-22 14:33:00,
2013-06-22 10:36:00,80.4,80.4,30.46,South,180,3.0,5.0,0,0.00,,,0.00,meteohub,2013-06-22 14:36:00,
2013-06-22 10:37:00,80.6,80.6,30.46,West,270,4.0,5.0,0,0.00,,,0.00,meteohub,2013-06-22 14:37:00,
2013-06-22 10:39:00,80.6,80.6,30.46,South,180,4.0,5.0,0,0.00,,,0.00,meteohub,2013-06-22 14:39:00,
2013-06-22 10:41:00,80.4,80.4,30.46,West,270,2.0,5.0,0,0.00,,,0.00,meteohub,2013-06-22 14:41:00,
2013-06-22 10:43:00,80.4,80.4,30.46,South,180,2.0,5.0,0,0.00,,,0.00,meteohub,2013-06-22 14:43:00,
2013-06-22 10:45:00,80.4,80.4,30.46,North,0,3.0,5.0,0,0.00,,,0.00,meteohub,2013-06-22 14:45:00,
2013-06-22 10:47:00,80.4,80.4,30.46,WSW,248,3.0,5.0,0,0.00,,,0.00,meteohub,2013-06-22 14:47:00,
2013-06-22 10:48:00,80.8,80.8,30.46,NW,315,2.0,5.0,0,0.00,,,0.00,meteohub,2013-06-22 14:48:00,
2013-06-22 10:49:00,81.0,81.0,30.45,WSW,248,5.0,5.0,0,0.00,,,0.00,meteohub,2013-06-22 14:49:00,
2013-06-22 10:50:00,81.0,81.0,30.46,South,180,2.0,5.0,0,0.00,,,0.00,meteohub,2013-06-22 14:50:00,
2013-06-22 10:52:00,81.1,81.1,30.46,South,180,2.0,5.0,0,0.00,,,0.00,meteohub,2013-06-22 14:52:00,
2013-06-22 10:53:00,81.3,81.3,30.45,North,0,2.0,5.0,0,0.00,,,0.00,meteohub,2013-06-22 14:53:00,
2013-06-22 10:55:00,81.7,81.7,30.45,South,180,3.0,5.0,0,0.00,,,0.00,meteohub,2013-06-22 14:55:00,
2013-06-22 10:56:00,81.7,81.7,30.45,West,270,4.0,5.0,0,0.00,,,0.00,meteohub,2013-06-22 14:56:00,
2013-06-22 10:57:00,81.7,81.7,30.46,South,180,3.0,5.0,0,0.00,,,0.00,meteohub,2013-06-22 14:57:00,
2013-06-22 10:59:00,81.5,81.5,30.46,NW,315,3.0,5.0,0,0.00,,,0.00,meteohub,2013-06-22 14:59:00,
2013-06-22 11:01:00,81.7,81.7,30.46,WSW,248,2.0,5.0,0,0.00,,,0.00,meteohub,2013-06-22 15:01:00,
2013-06-22 11:02:00,81.7,81.7,30.46,WSW,248,2.0,5.0,0,0.00,,,0.00,meteohub,2013-06-22 15:02:00,
2013-06-22 11:04:00,81.7,81.7,30.46,WSW,248,2.0,5.0,0,0.00,,,0.00,meteohub,2013-06-22 15:04:00,
2013-06-22 11:07:00,82.8,82.8,30.46,East,90,3.0,4.0,0,0.00,,,0.00,meteohub,2013-06-22 15:07:00,
2013-06-22 11:08:00,82.8,82.8,30.46,East,90,2.0,4.0,0,0.00,,,0.00,meteohub,2013-06-22 15:08:00,
2013-06-22 11:09:00,82.8,82.8,30.46,West,270,1.0,4.0,0,0.00,,,0.00,meteohub,2013-06-22 15:09:00,
2013-06-22 11:12:00,83.3,83.3,30.46,WSW,248,2.0,4.0,0,0.00,,,0.00,meteohub,2013-06-22 15:12:00,
2013-06-22 11:13:00,83.3,83.3,30.46,South,180,3.0,4.0,0,0.00,,,0.00,meteohub,2013-06-22 15:13:00,
2013-06-22 11:14:00,83.1,83.1,30.46,South,180,2.0,4.0,0,0.00,,,0.00,meteohub,2013-06-22 15:14:00,
2013-06-22 11:18:00,82.0,82.0,30.46,South,180,6.0,6.0,0,0.00,,,0.00,meteohub,2013-06-22 15:18:00,
2013-06-22 11:19:00,81.7,81.7,30.46,East,90,3.0,3.0,0,0.00,,,0.00,meteohub,2013-06-22 15:19:00,
2013-06-22 11:20:00,81.7,81.7,30.46,East,90,3.0,3.0,0,0.00,,,0.00,meteohub,2013-06-22 15:20:00,
2013-06-22 11:23:00,81.3,81.3,30.46,WSW,248,8.0,8.0,0,0.00,,,0.00,meteohub,2013-06-22 15:23:00,
2013-06-22 11:24:00,81.1,81.1,30.46,WSW,248,4.0,8.0,0,0.00,,,0.00,meteohub,2013-06-22 15:24:00,
2013-06-22 11:25:00,81.1,81.1,30.46,WSW,248,4.0,8.0,0,0.00,,,0.00,meteohub,2013-06-22 15:25:00,
2013-06-22 11:26:00,81.1,81.1,30.46,WSW,248,6.0,8.0,0,0.00,,,0.00,meteohub,2013-06-22 15:26:00,
2013-06-22 11:29:00,81.5,81.5,30.46,North,0,4.0,8.0,0,0.00,,,0.00,meteohub,2013-06-22 15:29:00,
2013-06-22 11:30:00,81.5,81.5,30.46,North,0,4.0,8.0,0,0.00,,,0.00,meteohub,2013-06-22 15:30:00,
2013-06-22 11:31:00,81.5,81.5,30.46,South,180,7.0,8.0,0,0.00,,,0.00,meteohub,2013-06-22 15:31:00,
2013-06-22 11:32:00,81.5,81.5,30.46,WSW,248,5.0,8.0,0,0.00,,,0.00,meteohub,2013-06-22 15:32:00,
2013-06-22 11:35:00,81.7,81.7,30.46,WSW,248,3.0,8.0,0,0.00,,,0.00,meteohub,2013-06-22 15:35:00,
2013-06-22 11:36:00,81.7,81.7,30.46,NW,315,3.0,8.0,0,0.00,,,0.00,meteohub,2013-06-22 15:36:00,
2013-06-22 11:37:00,81.9,81.9,30.46,NE,45,2.0,8.0,0,0.00,,,0.00,meteohub,2013-06-22 15:37:00,
2013-06-22 11:40:00,82.0,82.0,30.46,WSW,248,5.0,7.0,0,0.00,,,0.00,meteohub,2013-06-22 15:40:00,
2013-06-22 11:41:00,82.2,82.2,30.46,NW,315,2.0,7.0,0,0.00,,,0.00,meteohub,2013-06-22 15:41:00,
2013-06-22 11:42:00,82.0,82.0,30.46,WSW,248,2.0,7.0,0,0.00,,,0.00,meteohub,2013-06-22 15:42:00,
2013-06-22 11:43:00,82.2,82.2,30.46,SE,135,3.0,7.0,0,0.00,,,0.00,meteohub,2013-06-22 15:43:00,
2013-06-22 11:46:00,81.9,81.9,30.46,SE,135,2.0,7.0,0,0.00,,,0.00,meteohub,2013-06-22 15:46:00,
2013-06-22 11:47:00,82.0,82.0,30.45,WSW,248,2.0,7.0,0,0.00,,,0.00,meteohub,2013-06-22 15:47:00,
2013-06-22 11:49:00,82.4,82.4,30.46,North,0,8.0,8.0,0,0.00,,,0.00,meteohub,2013-06-22 15:49:00,
2013-06-22 11:52:00,82.4,82.4,30.45,North,0,3.0,7.0,0,0.00,,,0.00,meteohub,2013-06-22 15:52:00,
2013-06-22 11:54:00,82.4,82.4,30.46,East,90,3.0,7.0,0,0.00,,,0.00,meteohub,2013-06-22 15:54:00,
2013-06-22 11:55:00,82.2,82.2,30.46,West,270,4.0,8.0,0,0.00,,,0.00,meteohub,2013-06-22 15:55:00,
2013-06-22 11:57:00,82.2,82.2,30.45,South,180,8.0,8.0,0,0.00,,,0.00,meteohub,2013-06-22 15:57:00,
2013-06-22 11:58:00,82.2,82.2,30.46,West,270,3.0,8.0,0,0.00,,,0.00,meteohub,2013-06-22 15:58:00,
2013-06-22 11:59:00,82.0,82.0,30.46,WSW,248,8.0,8.0,0,0.00,,,0.00,meteohub,2013-06-22 15:59:00,
2013-06-22 12:00:00,82.0,82.0,30.46,WSW,248,4.0,8.0,0,0.00,,,0.00,meteohub,2013-06-22 16:00:00,
2013-06-22 12:02:00,82.0,82.0,30.46,WSW,248,4.0,8.0,0,0.00,,,0.00,meteohub,2013-06-22 16:02:00,
2013-06-22 12:03:00,82.0,82.0,30.46,WSW,248,4.0,8.0,0,0.00,,,0.00,meteohub,2013-06-22 16:03:00,
2013-06-22 12:04:00,82.0,82.0,30.46,WSW,248,4.0,8.0,0,0.00,,,0.00,meteohub,2013-06-22 16:04:00,
2013-06-22 12:07:00,82.0,82.0,30.46,WSW,248,4.0,8.0,0,0.00,,,0.00,meteohub,2013-06-22 16:07:00,
2013-06-22 12:08:00,82.4,82.4,30.46,NW,315,3.0,8.0,0,0.00,,,0.00,meteohub,2013-06-22 16:08:00,
2013-06-22 12:09:00,82.6,82.6,30.46,NW,315,6.0,8.0,0,0.00,,,0.00,meteohub,2013-06-22 16:09:00,
2013-06-22 12:12:00,82.6,82.6,30.46,North,0,4.0,8.0,0,0.00,,,0.00,meteohub,2013-06-22 16:12:00,
2013-06-22 12:13:00,82.4,82.4,30.47,SSE,158,5.0,8.0,0,0.00,,,0.00,meteohub,2013-06-22 16:13:00,
2013-06-22 12:14:00,82.4,82.4,30.46,NE,45,3.0,8.0,0,0.00,,,0.00,meteohub,2013-06-22 16:14:00,
2013-06-22 12:15:00,82.6,82.6,30.47,South,180,4.0,8.0,0,0.00,,,0.00,meteohub,2013-06-22 16:15:00,
2013-06-22 12:18:00,82.8,82.8,30.46,NW,315,7.0,7.0,0,0.00,,,0.00,meteohub,2013-06-22 16:18:00,
2013-06-22 12:19:00,82.6,82.6,30.47,North,0,4.0,6.0,0,0.00,,,0.00,meteohub,2013-06-22 16:19:00,
2013-06-22 12:20:00,82.6,82.6,30.46,WSW,248,3.0,7.0,0,0.00,,,0.00,meteohub,2013-06-22 16:20:00,
2013-06-22 12:22:00,82.8,82.8,30.47,West,270,4.0,7.0,0,0.00,,,0.00,meteohub,2013-06-22 16:22:00,
2013-06-22 12:23:00,82.9,82.9,30.47,South,180,2.0,7.0,0,0.00,,,0.00,meteohub,2013-06-22 16:23:00,
2013-06-22 12:24:00,82.9,82.9,30.47,South,180,2.0,7.0,0,0.00,,,0.00,meteohub,2013-06-22 16:24:00,
2013-06-22 12:26:00,83.3,83.3,30.47,SE,135,8.0,8.0,0,0.00,,,0.00,meteohub,2013-06-22 16:26:00,
2013-06-22 12:27:00,83.3,83.3,30.47,East,90,3.0,7.0,0,0.00,,,0.00,meteohub,2013-06-22 16:27:00,
2013-06-22 12:28:00,83.3,83.3,30.47,North,0,3.0,7.0,0,0.00,,,0.00,meteohub,2013-06-22 16:28:00,
2013-06-22 12:29:00,82.9,82.9,30.47,NW,315,4.0,7.0,0,0.00,,,0.00,meteohub,2013-06-22 16:29:00,
2013-06-22 12:30:00,82.9,82.9,30.47,West,270,2.0,8.0,0,0.00,,,0.00,meteohub,2013-06-22 16:30:00,
2013-06-22 12:31:00,82.6,82.6,30.47,NW,315,8.0,8.0,0,0.00,,,0.00,meteohub,2013-06-22 16:31:00,
2013-06-22 12:32:00,82.6,82.6,30.47,SE,135,2.0,8.0,0,0.00,,,0.00,meteohub,2013-06-22 16:32:00,
2013-06-22 12:34:00,82.6,82.6,30.47,South,180,7.0,8.0,0,0.00,,,0.00,meteohub,2013-06-22 16:34:00,
2013-06-22 12:36:00,82.6,82.6,30.47,SE,135,4.0,8.0,0,0.00,,,0.00,meteohub,2013-06-22 16:36:00,
2013-06-22 12:37:00,82.6,82.6,30.47,WSW,248,4.0,8.0,0,0.00,,,0.00,meteohub,2013-06-22 16:37:00,
2013-06-22 12:38:00,82.6,82.6,30.47,WSW,248,6.0,8.0,0,0.00,,,0.00,meteohub,2013-06-22 16:38:00,
2013-06-22 12:39:00,82.6,82.6,30.47,SE,135,4.0,8.0,0,0.00,,,0.00,meteohub,2013-06-22 16:39:00,
2013-06-22 12:40:00,82.6,82.6,30.47,SE,135,4.0,8.0,0,0.00,,,0.00,meteohub,2013-06-22 16:40:00,
2013-06-22 12:42:00,82.8,82.8,30.47,South,180,3.0,8.0,0,0.00,,,0.00,meteohub,2013-06-22 16:42:00,
2013-06-22 12:43:00,82.8,82.8,30.47,WSW,248,2.0,8.0,0,0.00,,,0.00,meteohub,2013-06-22 16:43:00,
2013-06-22 12:45:00,83.3,83.3,30.46,NW,315,4.0,8.0,0,0.00,,,0.00,meteohub,2013-06-22 16:45:00,
2013-06-22 12:46:00,83.7,83.7,30.46,West,270,4.0,8.0,0,0.00,,,0.00,meteohub,2013-06-22 16:46:00,
2013-06-22 12:47:00,83.7,83.7,30.46,West,270,4.0,8.0,0,0.00,,,0.00,meteohub,2013-06-22 16:47:00,
2013-06-22 12:48:00,83.8,83.8,30.46,East,90,2.0,8.0,0,0.00,,,0.00,meteohub,2013-06-22 16:48:00,
2013-06-22 12:50:00,84.4,84.4,30.46,North,0,4.0,6.0,0,0.00,,,0.00,meteohub,2013-06-22 16:50:00,
2013-06-22 12:51:00,84.4,84.4,30.46,North,0,8.0,8.0,0,0.00,,,0.00,meteohub,2013-06-22 16:51:00,
2013-06-22 12:53:00,84.2,84.2,30.46,East,90,4.0,6.0,0,0.00,,,0.00,meteohub,2013-06-22 16:53:00,
2013-06-22 12:54:00,84.2,84.2,30.46,South,180,8.0,8.0,0,0.00,,,0.00,meteohub,2013-06-22 16:54:00,
2013-06-22 12:57:00,84.0,84.0,30.46,North,0,4.0,8.0,0,0.00,,,0.00,meteohub,2013-06-22 16:57:00,
2013-06-22 12:58:00,84.2,84.2,30.46,WSW,248,6.0,8.0,0,0.00,,,0.00,meteohub,2013-06-22 16:58:00,
2013-06-22 13:00:00,83.8,83.8,30.46,NE,45,4.0,8.0,0,0.00,,,0.00,meteohub,2013-06-22 17:00:00,
2013-06-22 13:02:00,83.8,83.8,30.46,South,180,6.0,8.0,0,0.00,,,0.00,meteohub,2013-06-22 17:02:00,
2013-06-22 13:03:00,83.8,83.8,30.46,South,180,6.0,8.0,0,0.00,,,0.00,meteohub,2013-06-22 17:03:00,
2013-06-22 13:04:00,83.8,83.8,30.46,South,180,6.0,8.0,0,0.00,,,0.00,meteohub,2013-06-22 17:04:00,
2013-06-22 13:05:00,83.8,83.8,30.45,South,180,6.0,8.0,0,0.00,,,0.00,meteohub,2013-06-22 17:05:00,
2013-06-22 13:06:00,83.8,83.8,30.45,South,180,6.0,8.0,0,0.00,,,0.00,meteohub,2013-06-22 17:06:00,
2013-06-22 13:07:00,84.2,84.2,30.46,WSW,248,4.0,8.0,0,0.00,,,0.00,meteohub,2013-06-22 17:07:00,
2013-06-22 13:08:00,84.4,84.4,30.45,West,270,4.0,8.0,0,0.00,,,0.00,meteohub,2013-06-22 17:08:00,
2013-06-22 13:10:00,84.7,84.7,30.45,WSW,248,7.0,7.0,0,0.00,,,0.00,meteohub,2013-06-22 17:10:00,
2013-06-22 13:12:00,84.7,84.7,30.45,SE,135,7.0,7.0,0,0.00,,,0.00,meteohub,2013-06-22 17:12:00,
2013-06-22 13:14:00,84.7,84.7,30.45,SE,135,5.0,6.0,0,0.00,,,0.00,meteohub,2013-06-22 17:14:00,
2013-06-22 13:15:00,84.7,84.7,30.45,NW,315,6.0,7.0,0,0.00,,,0.00,meteohub,2013-06-22 17:15:00,
2013-06-22 13:16:00,84.7,84.7,30.45,WSW,248,4.0,7.0,0,0.00,,,0.00,meteohub,2013-06-22 17:16:00,
2013-06-22 13:17:00,84.7,84.7,30.45,South,180,2.0,7.0,0,0.00,,,0.00,meteohub,2013-06-22 17:17:00,
2013-06-22 13:19:00,84.9,84.9,30.45,West,270,6.0,7.0,0,0.00,,,0.00,meteohub,2013-06-22 17:19:00,
2013-06-22 13:21:00,84.7,84.7,30.45,West,270,4.0,7.0,0,0.00,,,0.00,meteohub,2013-06-22 17:21:00,
2013-06-22 13:22:00,84.7,84.7,30.45,West,270,7.0,7.0,0,0.00,,,0.00,meteohub,2013-06-22 17:22:00,
2013-06-22 13:23:00,84.7,84.7,30.45,West,270,4.0,7.0,0,0.00,,,0.00,meteohub,2013-06-22 17:23:00,
2013-06-22 13:24:00,84.9,84.9,30.45,NW,315,4.0,7.0,0,0.00,,,0.00,meteohub,2013-06-22 17:24:00,
2013-06-22 13:27:00,85.1,85.1,30.45,South,180,2.0,7.0,0,0.00,,,0.00,meteohub,2013-06-22 17:27:00,
2013-06-22 13:28:00,85.3,85.3,30.45,SE,135,2.0,7.0,0,0.00,,,0.00,meteohub,2013-06-22 17:28:00,
2013-06-22 13:30:00,85.5,85.5,30.45,South,180,3.0,7.0,0,0.00,,,0.00,meteohub,2013-06-22 17:30:00,
2013-06-22 13:32:00,86.0,86.0,30.45,NE,45,3.0,7.0,0,0.00,,,0.00,meteohub,2013-06-22 17:32:00,
2013-06-22 13:33:00,86.2,86.2,30.45,NE,45,6.0,7.0,0,0.00,,,0.00,meteohub,2013-06-22 17:33:00,
2013-06-22 13:34:00,86.2,86.2,30.45,WSW,248,2.0,7.0,0,0.00,,,0.00,meteohub,2013-06-22 17:34:00,
2013-06-22 13:35:00,86.2,86.2,30.45,WSW,248,2.0,7.0,0,0.00,,,0.00,meteohub,2013-06-22 17:35:00,
2013-06-22 13:38:00,86.0,86.0,30.45,WSW,248,3.0,7.0,0,0.00,,,0.00,meteohub,2013-06-22 17:38:00,
2013-06-22 13:40:00,85.8,85.8,30.45,WSW,248,4.0,7.0,0,0.00,,,0.00,meteohub,2013-06-22 17:40:00,
2013-06-22 13:41:00,85.8,85.8,30.45,WSW,248,4.0,7.0,0,0.00,,,0.00,meteohub,2013-06-22 17:41:00,
2013-06-22 13:44:00,85.6,85.6,30.45,South,180,2.0,7.0,0,0.00,,,0.00,meteohub,2013-06-22 17:44:00,
2013-06-22 13:46:00,86.0,86.0,30.45,West,270,3.0,7.0,0,0.00,,,0.00,meteohub,2013-06-22 17:46:00,
2013-06-22 13:48:00,85.5,85.5,30.44,NW,315,8.0,8.0,0,0.00,,,0.00,meteohub,2013-06-22 17:48:00,
2013-06-22 13:49:00,85.3,85.3,30.45,WSW,248,4.0,7.0,0,0.00,,,0.00,meteohub,2013-06-22 17:49:00,
2013-06-22 13:51:00,85.6,85.6,30.44,WSW,248,4.0,8.0,0,0.00,,,0.00,meteohub,2013-06-22 17:51:00,
2013-06-22 13:52:00,85.8,85.8,30.45,West,270,3.0,8.0,0,0.00,,,0.00,meteohub,2013-06-22 17:52:00,
2013-06-22 13:53:00,86.0,86.0,30.44,WSW,248,4.0,8.0,0,0.00,,,0.00,meteohub,2013-06-22 17:53:00,
2013-06-22 13:54:00,86.0,86.0,30.44,East,90,3.0,8.0,0,0.00,,,0.00,meteohub,2013-06-22 17:54:00,
2013-06-22 13:55:00,86.0,86.0,30.44,East,90,3.0,8.0,0,0.00,,,0.00,meteohub,2013-06-22 17:55:00,
2013-06-22 13:57:00,86.0,86.0,30.44,WSW,248,4.0,8.0,0,0.00,,,0.00,meteohub,2013-06-22 17:57:00,
2013-06-22 13:58:00,86.0,86.0,30.44,WSW,248,4.0,8.0,0,0.00,,,0.00,meteohub,2013-06-22 17:58:00,
2013-06-22 13:59:00,85.8,85.8,30.44,WSW,248,4.0,8.0,0,0.00,,,0.00,meteohub,2013-06-22 17:59:00,
2013-06-22 14:00:00,85.6,85.6,30.44,East,90,3.0,8.0,0,0.00,,,0.00,meteohub,2013-06-22 18:00:00,
2013-06-22 14:01:00,85.6,85.6,30.44,East,90,3.0,8.0,0,0.00,,,0.00,meteohub,2013-06-22 18:01:00,
2013-06-22 14:03:00,85.6,85.6,30.44,East,90,3.0,8.0,0,0.00,,,0.00,meteohub,2013-06-22 18:03:00,
2013-06-22 14:04:00,85.6,85.6,30.44,East,90,3.0,8.0,0,0.00,,,0.00,meteohub,2013-06-22 18:04:00,
2013-06-22 14:05:00,85.6,85.6,30.44,East,90,3.0,8.0,0,0.00,,,0.00,meteohub,2013-06-22 18:05:00,
2013-06-22 14:08:00,86.5,86.5,30.43,South,180,5.0,8.0,0,0.00,,,0.00,meteohub,2013-06-22 18:08:00,
2013-06-22 14:09:00,86.5,86.5,30.44,WSW,248,3.0,8.0,0,0.00,,,0.00,meteohub,2013-06-22 18:09:00,
2013-06-22 14:10:00,86.7,86.7,30.44,South,180,2.0,8.0,0,0.00,,,0.00,meteohub,2013-06-22 18:10:00,
2013-06-22 14:13:00,86.7,86.7,30.43,South,180,2.0,8.0,0,0.00,,,0.00,meteohub,2013-06-22 18:13:00,
2013-06-22 14:14:00,86.9,86.9,30.44,SE,135,2.0,8.0,0,0.00,,,0.00,meteohub,2013-06-22 18:14:00,
2013-06-22 14:15:00,86.7,86.7,30.43,WSW,248,2.0,8.0,0,0.00,,,0.00,meteohub,2013-06-22 18:15:00,
2013-06-22 14:18:00,87.1,87.1,30.43,WSW,248,5.0,6.0,0,0.00,,,0.00,meteohub,2013-06-22 18:18:00,
2013-06-22 14:19:00,87.3,87.3,30.44,West,270,4.0,6.0,0,0.00,,,0.00,meteohub,2013-06-22 18:19:00,
2013-06-22 14:20:00,87.4,87.4,30.43,West,270,3.0,6.0,0,0.00,,,0.00,meteohub,2013-06-22 18:20:00,
2013-06-22 14:21:00,87.3,87.3,30.44,South,180,2.0,6.0,0,0.00,,,0.00,meteohub,2013-06-22 18:21:00,
2013-06-22 14:23:00,87.3,87.3,30.44,SE,135,2.0,6.0,0,0.00,,,0.00,meteohub,2013-06-22 18:23:00,
2013-06-22 14:25:00,87.4,87.4,30.43,South,180,4.0,6.0,0,0.00,,,0.00,meteohub,2013-06-22 18:25:00,
2013-06-22 14:26:00,87.4,87.4,30.43,East,90,2.0,6.0,0,0.00,,,0.00,meteohub,2013-06-22 18:26:00,
2013-06-22 14:28:00,86.7,86.7,30.44,WSW,248,4.0,6.0,0,0.00,,,0.00,meteohub,2013-06-22 18:28:00,
2013-06-22 14:30:00,86.0,86.0,30.44,NW,315,3.0,5.0,0,0.00,,,0.00,meteohub,2013-06-22 18:30:00,
2013-06-22 14:31:00,85.8,85.8,30.43,South,180,1.0,5.0,0,0.00,,,0.00,meteohub,2013-06-22 18:31:00,
2013-06-22 14:32:00,85.8,85.8,30.44,East,90,2.0,5.0,0,0.00,,,0.00,meteohub,2013-06-22 18:32:00,
2013-06-22 14:34:00,85.8,85.8,30.43,East,90,2.0,5.0,0,0.00,,,0.00,meteohub,2013-06-22 18:34:00,
2013-06-22 14:36:00,86.0,86.0,30.43,SE,135,4.0,4.0,0,0.00,,,0.00,meteohub,2013-06-22 18:36:00,
2013-06-22 14:38:00,85.8,85.8,30.43,South,180,2.0,4.0,0,0.00,,,0.00,meteohub,2013-06-22 18:38:00,
2013-06-22 14:39:00,85.8,85.8,30.43,South,180,4.0,4.0,0,0.00,,,0.00,meteohub,2013-06-22 18:39:00,
2013-06-22 14:41:00,85.8,85.8,30.43,NW,315,8.0,8.0,0,0.00,,,0.00,meteohub,2013-06-22 18:41:00,
2013-06-22 14:42:00,85.8,85.8,30.44,WSW,248,3.0,4.0,0,0.00,,,0.00,meteohub,2013-06-22 18:42:00,
2013-06-22 14:44:00,86.2,86.2,30.43,South,180,6.0,6.0,0,0.00,,,0.00,meteohub,2013-06-22 18:44:00,
2013-06-22 14:45:00,86.2,86.2,30.43,South,180,6.0,6.0,0,0.00,,,0.00,meteohub,2013-06-22 18:45:00,
2013-06-22 14:47:00,85.8,85.8,30.43,South,180,4.0,10.0,0,0.00,,,0.00,meteohub,2013-06-22 18:47:00,
2013-06-22 14:48:00,85.6,85.6,30.43,WSW,248,5.0,10.0,0,0.00,,,0.00,meteohub,2013-06-22 18:48:00,
2013-06-22 14:49:00,84.9,84.9,30.43,South,180,2.0,10.0,0,0.00,,,0.00,meteohub,2013-06-22 18:49:00,
2013-06-22 14:50:00,84.9,84.9,30.43,South,180,2.0,10.0,0,0.00,,,0.00,meteohub,2013-06-22 18:50:00,
2013-06-22 14:52:00,85.3,85.3,30.43,South,180,4.0,10.0,0,0.00,,,0.00,meteohub,2013-06-22 18:52:00,
2013-06-22 14:53:00,85.3,85.3,30.43,NW,315,8.0,10.0,0,0.00,,,0.00,meteohub,2013-06-22 18:53:00,
2013-06-22 14:54:00,85.3,85.3,30.43,West,270,8.0,10.0,0,0.00,,,0.00,meteohub,2013-06-22 18:54:00,
2013-06-22 14:55:00,85.5,85.5,30.43,South,180,3.0,10.0,0,0.00,,,0.00,meteohub,2013-06-22 18:55:00,
2013-06-22 14:58:00,86.2,86.2,30.43,WSW,248,6.0,10.0,0,0.00,,,0.00,meteohub,2013-06-22 18:58:00,
2013-06-22 14:59:00,86.4,86.4,30.43,WSW,248,4.0,10.0,0,0.00,,,0.00,meteohub,2013-06-22 18:59:00,
2013-06-22 15:00:00,86.4,86.4,30.43,WSW,248,4.0,10.0,0,0.00,,,0.00,meteohub,2013-06-22 19:00:00,
2013-06-22 15:01:00,86.4,86.4,30.43,WSW,248,4.0,9.0,0,0.00,,,0.00,meteohub,2013-06-22 19:01:00,
2013-06-22 15:03:00,86.4,86.4,30.43,WSW,248,4.0,9.0,0,0.00,,,0.00,meteohub,2013-06-22 19:03:00,
2013-06-22 15:04:00,86.4,86.4,30.44,WSW,248,4.0,9.0,0,0.00,,,0.00,meteohub,2013-06-22 19:04:00,
2013-06-22 15:05:00,86.4,86.4,30.43,WSW,248,4.0,9.0,0,0.00,,,0.00,meteohub,2013-06-22 19:05:00,
2013-06-22 15:06:00,86.4,86.4,30.43,WSW,248,4.0,8.0,0,0.00,,,0.00,meteohub,2013-06-22 19:06:00,
2013-06-22 15:09:00,86.5,86.5,30.43,SE,135,4.0,8.0,0,0.00,,,0.00,meteohub,2013-06-22 19:09:00,
2013-06-22 15:10:00,86.4,86.4,30.43,SE,135,4.0,8.0,0,0.00,,,0.00,meteohub,2013-06-22 19:10:00,
2013-06-22 15:13:00,86.7,86.7,30.43,WSW,248,1.0,6.0,0,0.00,,,0.00,meteohub,2013-06-22 19:13:00,
2013-06-22 15:14:00,87.1,87.1,30.43,East,90,2.0,6.0,0,0.00,,,0.00,meteohub,2013-06-22 19:14:00,
2013-06-22 15:15:00,87.6,87.6,30.43,SE,135,4.0,6.0,0,0.00,,,0.00,meteohub,2013-06-22 19:15:00,
2013-06-22 15:16:00,87.8,87.8,30.43,South,180,3.0,5.0,0,0.00,,,0.00,meteohub,2013-06-22 19:16:00,
2013-06-22 15:17:00,88.2,88.2,30.43,WSW,248,4.0,5.0,0,0.00,,,0.00,meteohub,2013-06-22 19:17:00,
2013-06-22 15:18:00,88.2,88.2,30.43,WSW,248,4.0,5.0,0,0.00,,,0.00,meteohub,2013-06-22 19:18:00,
2013-06-22 15:21:00,88.2,88.2,30.43,WSW,248,4.0,5.0,0,0.00,,,0.00,meteohub,2013-06-22 19:21:00,
2013-06-22 15:24:00,88.2,88.2,30.43,WSW,248,2.0,5.0,0,0.00,,,0.00,meteohub,2013-06-22 19:24:00,
2013-06-22 15:25:00,88.3,88.3,30.43,NW,315,2.0,5.0,0,0.00,,,0.00,meteohub,2013-06-22 19:25:00,
2013-06-22 15:26:00,88.7,88.7,30.43,WSW,248,4.0,8.0,0,0.00,,,0.00,meteohub,2013-06-22 19:26:00,
2013-06-22 15:27:00,89.1,89.1,30.43,NW,315,3.0,8.0,0,0.00,,,0.00,meteohub,2013-06-22 19:27:00,
2013-06-22 15:30:00,89.1,89.1,30.43,WSW,248,2.0,8.0,0,0.00,,,0.00,meteohub,2013-06-22 19:30:00,
2013-06-22 15:31:00,89.2,89.2,30.43,SE,135,5.0,8.0,0,0.00,,,0.00,meteohub,2013-06-22 19:31:00,
2013-06-22 15:35:00,88.7,88.7,30.43,North,0,4.0,8.0,0,0.00,,,0.00,meteohub,2013-06-22 19:35:00,
2013-06-22 15:37:00,88.9,88.9,30.42,NW,315,2.0,8.0,0,0.00,,,0.00,meteohub,2013-06-22 19:37:00,
2013-06-22 15:40:00,89.2,89.2,30.42,West,270,2.0,8.0,0,0.00,,,0.00,meteohub,2013-06-22 19:40:00,
2013-06-22 15:41:00,89.6,89.6,30.42,North,0,3.0,5.0,0,0.00,,,0.00,meteohub,2013-06-22 19:41:00,
2013-06-22 15:42:00,89.6,89.6,30.42,North,0,3.0,5.0,0,0.00,,,0.00,meteohub,2013-06-22 19:42:00,
2013-06-22 15:45:00,89.4,89.4,30.42,South,180,4.0,5.0,0,0.00,,,0.00,meteohub,2013-06-22 19:45:00,
2013-06-22 15:46:00,89.4,89.4,30.42,South,180,4.0,5.0,0,0.00,,,0.00,meteohub,2013-06-22 19:46:00,
2013-06-22 15:47:00,89.2,89.2,30.42,WSW,248,4.0,5.0,0,0.00,,,0.00,meteohub,2013-06-22 19:47:00,
2013-06-22 15:51:00,88.7,88.7,30.42,South,180,2.0,5.0,0,0.00,,,0.00,meteohub,2013-06-22 19:51:00,
2013-06-22 15:52:00,88.9,88.9,30.42,NW,315,1.0,5.0,0,0.00,,,0.00,meteohub,2013-06-22 19:52:00,
2013-06-22 15:53:00,89.1,89.1,30.42,North,0,2.0,5.0,0,0.00,,,0.00,meteohub,2013-06-22 19:53:00,
2013-06-22 15:56:00,89.1,89.1,30.42,NW,315,2.0,5.0,0,0.00,,,0.00,meteohub,2013-06-22 19:56:00,
2013-06-22 15:58:00,88.9,88.9,30.42,South,180,4.0,5.0,0,0.00,,,0.00,meteohub,2013-06-22 19:58:00,
2013-06-22 15:59:00,88.7,88.7,30.42,East,90,4.0,5.0,0,0.00,,,0.00,meteohub,2013-06-22 19:59:00,
2013-06-22 16:01:00,88.7,88.7,30.42,East,90,4.0,5.0,0,0.00,,,0.00,meteohub,2013-06-22 20:01:00,
2013-06-22 16:02:00,88.7,88.7,30.42,East,90,4.0,5.0,0,0.00,,,0.00,meteohub,2013-06-22 20:02:00,
2013-06-22 16:03:00,88.7,88.7,30.42,East,90,4.0,5.0,0,0.00,,,0.00,meteohub,2013-06-22 20:03:00,
2013-06-22 16:06:00,88.7,88.7,30.42,East,90,4.0,5.0,0,0.00,,,0.00,meteohub,2013-06-22 20:06:00,
2013-06-22 16:08:00,89.1,89.1,30.42,South,180,4.0,5.0,0,0.00,,,0.00,meteohub,2013-06-22 20:08:00,
2013-06-22 16:09:00,89.1,89.1,30.41,SE,135,5.0,5.0,0,0.00,,,0.00,meteohub,2013-06-22 20:09:00,
2013-06-22 16:11:00,89.4,89.4,30.41,WSW,248,2.0,5.0,0,0.00,,,0.00,meteohub,2013-06-22 20:11:00,
2013-06-22 16:12:00,89.6,89.6,30.41,WSW,248,2.0,5.0,0,0.00,,,0.00,meteohub,2013-06-22 20:12:00,
2013-06-22 16:14:00,90.0,90.0,30.41,North,0,4.0,5.0,0,0.00,,,0.00,meteohub,2013-06-22 20:14:00,
2013-06-22 16:16:00,89.6,89.6,30.41,SE,135,2.0,5.0,0,0.00,,,0.00,meteohub,2013-06-22 20:16:00,
2013-06-22 16:19:00,89.1,89.1,30.41,WSW,248,4.0,5.0,0,0.00,,,0.00,meteohub,2013-06-22 20:19:00,
2013-06-22 16:20:00,88.9,88.9,30.41,WSW,248,2.0,5.0,0,0.00,,,0.00,meteohub,2013-06-22 20:20:00,
2013-06-22 16:22:00,88.7,88.7,30.41,WSW,248,5.0,7.0,0,0.00,,,0.00,meteohub,2013-06-22 20:22:00,
2013-06-22 16:24:00,88.7,88.7,30.41,NE,45,2.0,7.0,0,0.00,,,0.00,meteohub,2013-06-22 20:24:00,
2013-06-22 16:25:00,88.9,88.9,30.41,West,270,2.0,7.0,0,0.00,,,0.00,meteohub,2013-06-22 20:25:00,
2013-06-22 16:27:00,88.9,88.9,30.41,West,270,3.0,7.0,0,0.00,,,0.00,meteohub,2013-06-22 20:27:00,
2013-06-22 16:28:00,88.9,88.9,30.41,WSW,248,2.0,7.0,0,0.00,,,0.00,meteohub,2013-06-22 20:28:00,
2013-06-22 16:29:00,88.7,88.7,30.40,WSW,248,4.0,7.0,0,0.00,,,0.00,meteohub,2013-06-22 20:29:00,
2013-06-22 16:30:00,88.5,88.5,30.41,West,270,3.0,7.0,0,0.00,,,0.00,meteohub,2013-06-22 20:30:00,
2013-06-22 16:31:00,88.2,88.2,30.41,South,180,5.0,6.0,0,0.00,,,0.00,meteohub,2013-06-22 20:31:00,
2013-06-22 16:32:00,88.0,88.0,30.41,WSW,248,5.0,6.0,0,0.00,,,0.00,meteohub,2013-06-22 20:32:00,
2013-06-22 16:34:00,88.0,88.0,30.40,East,90,2.0,6.0,0,0.00,,,0.00,meteohub,2013-06-22 20:34:00,
2013-06-22 16:35:00,88.0,88.0,30.40,East,90,2.0,6.0,0,0.00,,,0.00,meteohub,2013-06-22 20:35:00,
2013-06-22 16:37:00,88.0,88.0,30.40,SE,135,5.0,5.0,0,0.00,,,0.00,meteohub,2013-06-22 20:37:00,
2013-06-22 16:39:00,87.6,87.6,30.40,East,90,4.0,5.0,0,0.00,,,0.00,meteohub,2013-06-22 20:39:00,
2013-06-22 16:40:00,87.6,87.6,30.40,East,90,4.0,5.0,0,0.00,,,0.00,meteohub,2013-06-22 20:40:00,
2013-06-22 16:41:00,87.4,87.4,30.40,East,90,4.0,5.0,0,0.00,,,0.00,meteohub,2013-06-22 20:41:00,
2013-06-22 16:42:00,87.6,87.6,30.40,WSW,248,3.0,5.0,0,0.00,,,0.00,meteohub,2013-06-22 20:42:00,
2013-06-22 16:44:00,88.3,88.3,30.40,East,90,2.0,5.0,0,0.00,,,0.00,meteohub,2013-06-22 20:44:00,
2013-06-22 16:46:00,88.7,88.7,30.40,WSW,248,5.0,7.0,0,0.00,,,0.00,meteohub,2013-06-22 20:46:00,
2013-06-22 16:47:00,88.9,88.9,30.40,South,180,8.0,8.0,0,0.00,,,0.00,meteohub,2013-06-22 20:47:00,
2013-06-22 16:49:00,88.9,88.9,30.39,East,90,4.0,7.0,0,0.00,,,0.00,meteohub,2013-06-22 20:49:00,
2013-06-22 16:50:00,88.9,88.9,30.39,WSW,248,3.0,7.0,0,0.00,,,0.00,meteohub,2013-06-22 20:50:00,
2013-06-22 16:51:00,88.9,88.9,30.39,East,90,2.0,8.0,0,0.00,,,0.00,meteohub,2013-06-22 20:51:00,
2013-06-22 16:52:00,88.9,88.9,30.39,SE,135,2.0,8.0,0,0.00,,,0.00,meteohub,2013-06-22 20:52:00,
2013-06-22 16:56:00,88.5,88.5,30.38,West,270,5.0,8.0,0,0.00,,,0.00,meteohub,2013-06-22 20:56:00,
2013-06-22 16:57:00,88.0,88.0,30.38,NW,315,4.0,8.0,0,0.00,,,0.00,meteohub,2013-06-22 20:57:00,
2013-06-22 16:58:00,87.8,87.8,30.39,South,180,4.0,8.0,0,0.00,,,0.00,meteohub,2013-06-22 20:58:00,
2013-06-22 17:01:00,87.6,87.6,30.39,WSW,248,2.0,8.0,0,0.00,,,0.00,meteohub,2013-06-22 21:01:00,
2013-06-22 17:02:00,87.6,87.6,30.39,WSW,248,2.0,8.0,0,0.00,,,0.00,meteohub,2013-06-22 21:02:00,
2013-06-22 17:03:00,87.6,87.6,30.39,WSW,248,2.0,8.0,0,0.00,,,0.00,meteohub,2013-06-22 21:03:00,
2013-06-22 17:04:00,87.4,87.4,30.39,NE,45,2.0,8.0,0,0.00,,,0.00,meteohub,2013-06-22 21:04:00,
2013-06-22 17:07:00,87.8,87.8,30.38,South,180,2.0,5.0,0,0.00,,,0.00,meteohub,2013-06-22 21:07:00,
2013-06-22 17:08:00,88.0,88.0,30.38,NW,315,2.0,5.0,0,0.00,,,0.00,meteohub,2013-06-22 21:08:00,
2013-06-22 17:09:00,88.2,88.2,30.38,South,180,2.0,5.0,0,0.00,,,0.00,meteohub,2013-06-22 21:09:00,
2013-06-22 17:10:00,88.2,88.2,30.38,SE,135,4.0,5.0,0,0.00,,,0.00,meteohub,2013-06-22 21:10:00,
2013-06-22 17:13:00,87.3,87.3,30.38,West,270,6.0,6.0,0,0.00,,,0.00,meteohub,2013-06-22 21:13:00,
2013-06-22 17:14:00,86.7,86.7,30.38,South,180,5.0,5.0,0,0.00,,,0.00,meteohub,2013-06-22 21:14:00,
2013-06-22 17:16:00,86.5,86.5,30.38,West,270,4.0,6.0,0,0.00,,,0.00,meteohub,2013-06-22 21:16:00,
2013-06-22 17:17:00,86.4,86.4,30.38,West,270,2.0,6.0,0,0.00,,,0.00,meteohub,2013-06-22 21:17:00,
2013-06-22 17:19:00,86.4,86.4,30.38,West,270,2.0,6.0,0,0.00,,,0.00,meteohub,2013-06-22 21:19:00,
2013-06-22 17:21:00,86.4,86.4,30.38,West,270,2.0,6.0,0,0.00,,,0.00,meteohub,2013-06-22 21:21:00,
2013-06-22 17:22:00,86.4,86.4,30.38,West,270,2.0,6.0,0,0.00,,,0.00,meteohub,2013-06-22 21:22:00,
2013-06-22 17:24:00,86.9,86.9,30.38,South,180,4.0,6.0,0,0.00,,,0.00,meteohub,2013-06-22 21:24:00,
2013-06-22 17:25:00,86.7,86.7,30.38,South,180,4.0,6.0,0,0.00,,,0.00,meteohub,2013-06-22 21:25:00,
2013-06-22 17:27:00,86.5,86.5,30.38,South,180,3.0,6.0,0,0.00,,,0.00,meteohub,2013-06-22 21:27:00,
2013-06-22 17:28:00,86.4,86.4,30.38,WSW,248,4.0,6.0,0,0.00,,,0.00,meteohub,2013-06-22 21:28:00,
2013-06-22 17:30:00,86.4,86.4,30.38,South,180,1.0,6.0,0,0.00,,,0.00,meteohub,2013-06-22 21:30:00,
2013-06-22 17:32:00,86.9,86.9,30.37,West,270,6.0,6.0,0,0.00,,,0.00,meteohub,2013-06-22 21:32:00,
2013-06-22 17:33:00,86.9,86.9,30.37,West,270,6.0,6.0,0,0.00,,,0.00,meteohub,2013-06-22 21:33:00,
2013-06-22 17:34:00,86.9,86.9,30.37,WSW,248,2.0,5.0,0,0.00,,,0.00,meteohub,2013-06-22 21:34:00,
2013-06-22 17:35:00,87.1,87.1,30.37,WSW,248,4.0,6.0,0,0.00,,,0.00,meteohub,2013-06-22 21:35:00,
2013-06-22 17:37:00,87.3,87.3,30.37,South,180,6.0,6.0,0,0.00,,,0.00,meteohub,2013-06-22 21:37:00,
2013-06-22 17:38:00,87.3,87.3,30.37,South,180,6.0,6.0,0,0.00,,,0.00,meteohub,2013-06-22 21:38:00,
2013-06-22 17:39:00,87.3,87.3,30.37,WSW,248,2.0,6.0,0,0.00,,,0.00,meteohub,2013-06-22 21:39:00,
2013-06-22 17:40:00,87.3,87.3,30.37,WSW,248,2.0,7.0,0,0.00,,,0.00,meteohub,2013-06-22 21:40:00,
2013-06-22 17:43:00,87.3,87.3,30.36,South,180,7.0,7.0,0,0.00,,,0.00,meteohub,2013-06-22 21:43:00,
2013-06-22 17:45:00,86.5,86.5,30.37,South,180,2.0,7.0,0,0.00,,,0.00,meteohub,2013-06-22 21:45:00,
2013-06-22 17:47:00,86.4,86.4,30.36,South,180,5.0,7.0,0,0.00,,,0.00,meteohub,2013-06-22 21:47:00,
2013-06-22 17:48:00,86.2,86.2,30.37,West,270,4.0,7.0,0,0.00,,,0.00,meteohub,2013-06-22 21:48:00,
2013-06-22 17:50:00,85.8,85.8,30.36,WSW,248,5.0,7.0,0,0.00,,,0.00,meteohub,2013-06-22 21:50:00,
2013-06-22 17:53:00,85.3,85.3,30.36,WSW,248,2.0,7.0,0,0.00,,,0.00,meteohub,2013-06-22 21:53:00,
2013-06-22 17:54:00,85.3,85.3,30.36,WSW,248,2.0,7.0,0,0.00,,,0.00,meteohub,2013-06-22 21:54:00,
2013-06-22 17:55:00,84.7,84.7,30.36,WSW,248,4.0,8.0,0,0.00,,,0.00,meteohub,2013-06-22 21:55:00,
2013-06-22 17:56:00,84.6,84.6,30.36,South,180,5.0,8.0,0,0.00,,,0.00,meteohub,2013-06-22 21:56:00,
2013-06-22 17:58:00,84.0,84.0,30.36,North,0,4.0,8.0,0,0.00,,,0.00,meteohub,2013-06-22 21:58:00,
2013-06-22 17:59:00,83.8,83.8,30.36,WSW,248,2.0,8.0,0,0.00,,,0.00,meteohub,2013-06-22 21:59:00,
2013-06-22 18:01:00,83.7,83.7,30.36,WSW,248,2.0,8.0,0,0.00,,,0.00,meteohub,2013-06-22 22:01:00,
2013-06-22 18:03:00,83.7,83.7,30.36,WSW,248,2.0,8.0,0,0.00,,,0.00,meteohub,2013-06-22 22:03:00,
2013-06-22 18:04:00,83.7,83.7,30.36,WSW,248,2.0,8.0,0,0.00,,,0.00,meteohub,2013-06-22 22:04:00,
2013-06-22 18:05:00,83.7,83.7,30.35,WSW,248,2.0,8.0,0,0.00,,,0.00,meteohub,2013-06-22 22:05:00,
2013-06-22 18:06:00,83.7,83.7,30.35,WSW,248,2.0,8.0,0,0.00,,,0.00,meteohub,2013-06-22 22:06:00,
2013-06-22 18:09:00,82.2,82.2,30.36,SE,135,3.0,8.0,0,0.00,,,0.00,meteohub,2013-06-22 22:09:00,
2013-06-22 18:10:00,82.0,82.0,30.35,WSW,248,3.0,5.0,0,0.00,,,0.00,meteohub,2013-06-22 22:10:00,
2013-06-22 18:11:00,82.0,82.0,30.36,West,270,2.0,5.0,0,0.00,,,0.00,meteohub,2013-06-22 22:11:00,
2013-06-22 18:12:00,82.0,82.0,30.36,West,270,2.0,5.0,0,0.00,,,0.00,meteohub,2013-06-22 22:12:00,
2013-06-22 18:14:00,81.9,81.9,30.35,SE,135,3.0,5.0,0,0.00,,,0.00,meteohub,2013-06-22 22:14:00,
2013-06-22 18:16:00,81.7,81.7,30.35,NW,315,2.0,4.0,0,0.00,,,0.00,meteohub,2013-06-22 22:16:00,
2013-06-22 18:17:00,81.7,81.7,30.35,South,180,2.0,4.0,0,0.00,,,0.00,meteohub,2013-06-22 22:17:00,
2013-06-22 18:19:00,81.9,81.9,30.35,NE,45,2.0,4.0,0,0.00,,,0.00,meteohub,2013-06-22 22:19:00,
2013-06-22 18:20:00,81.9,81.9,30.35,South,180,4.0,4.0,0,0.00,,,0.00,meteohub,2013-06-22 22:20:00,
2013-06-22 18:21:00,81.9,81.9,30.35,WSW,248,2.0,4.0,0,0.00,,,0.00,meteohub,2013-06-22 22:21:00,
2013-06-22 18:22:00,81.9,81.9,30.35,South,180,4.0,4.0,0,0.00,,,0.00,meteohub,2013-06-22 22:22:00,
2013-06-22 18:23:00,81.9,81.9,30.35,West,270,2.0,4.0,0,0.00,,,0.00,meteohub,2013-06-22 22:23:00,
2013-06-22 18:25:00,81.9,81.9,30.35,South,180,2.0,4.0,0,0.00,,,0.00,meteohub,2013-06-22 22:25:00,
2013-06-22 18:26:00,81.9,81.9,30.35,NW,315,1.0,4.0,0,0.00,,,0.00,meteohub,2013-06-22 22:26:00,
2013-06-22 18:27:00,81.9,81.9,30.36,NW,315,1.0,4.0,0,0.00,,,0.00,meteohub,2013-06-22 22:27:00,
2013-06-22 18:28:00,81.9,81.9,30.36,NW,315,1.0,4.0,0,0.00,,,0.00,meteohub,2013-06-22 22:28:00,
2013-06-22 18:31:00,82.0,82.0,30.36,WSW,248,2.0,4.0,0,0.00,,,0.00,meteohub,2013-06-22 22:31:00,
2013-06-22 18:32:00,82.0,82.0,30.36,WSW,248,2.0,4.0,0,0.00,,,0.00,meteohub,2013-06-22 22:32:00,
2013-06-22 18:33:00,82.2,82.2,30.35,WSW,248,2.0,4.0,0,0.00,,,0.00,meteohub,2013-06-22 22:33:00,
2013-06-22 18:35:00,82.2,82.2,30.36,SE,135,5.0,5.0,0,0.00,,,0.00,meteohub,2013-06-22 22:35:00,
2013-06-22 18:37:00,82.2,82.2,30.36,WSW,248,3.0,4.0,0,0.00,,,0.00,meteohub,2013-06-22 22:37:00,
2013-06-22 18:38:00,82.2,82.2,30.36,WSW,248,3.0,4.0,0,0.00,,,0.00,meteohub,2013-06-22 22:38:00,
2013-06-22 18:39:00,82.2,82.2,30.36,WSW,248,3.0,4.0,0,0.00,,,0.00,meteohub,2013-06-22 22:39:00,
2013-06-22 18:41:00,82.2,82.2,30.35,North,0,1.0,5.0,0,0.00,,,0.00,meteohub,2013-06-22 22:41:00,
2013-06-22 18:42:00,82.2,82.2,30.35,West,270,4.0,5.0,0,0.00,,,0.00,meteohub,2013-06-22 22:42:00,
2013-06-22 18:44:00,82.0,82.0,30.35,South,180,2.0,5.0,0,0.00,,,0.00,meteohub,2013-06-22 22:44:00,
2013-06-22 18:46:00,82.4,82.4,30.35,WSW,248,2.0,5.0,0,0.00,,,0.00,meteohub,2013-06-22 22:46:00,
2013-06-22 18:48:00,82.4,82.4,30.35,South,180,2.0,5.0,0,0.00,,,0.00,meteohub,2013-06-22 22:48:00,
2013-06-22 18:49:00,82.6,82.6,30.35,NW,315,0.0,5.0,0,0.00,,,0.00,meteohub,2013-06-22 22:49:00,
2013-06-22 18:50:00,82.6,82.6,30.35,South,180,2.0,5.0,0,0.00,,,0.00,meteohub,2013-06-22 22:50:00,
2013-06-22 18:52:00,82.6,82.6,30.35,South,180,3.0,5.0,0,0.00,,,0.00,meteohub,2013-06-22 22:52:00,
2013-06-22 18:54:00,82.6,82.6,30.35,WSW,248,1.0,5.0,0,0.00,,,0.00,meteohub,2013-06-22 22:54:00,
2013-06-22 18:55:00,82.6,82.6,30.35,NW,315,1.0,5.0,0,0.00,,,0.00,meteohub,2013-06-22 22:55:00,
2013-06-22 18:57:00,82.6,82.6,30.35,West,270,2.0,5.0,0,0.00,,,0.00,meteohub,2013-06-22 22:57:00,
2013-06-22 18:58:00,82.6,82.6,30.35,WSW,248,2.0,5.0,0,0.00,,,0.00,meteohub,2013-06-22 22:58:00,
2013-06-22 18:59:00,82.6,82.6,30.35,WSW,248,2.0,5.0,0,0.00,,,0.00,meteohub,2013-06-22 22:59:00,
2013-06-22 19:01:00,82.6,82.6,30.35,West,270,2.0,3.0,0,0.00,,,0.00,meteohub,2013-06-22 23:01:00,
2013-06-22 19:02:00,82.6,82.6,30.35,West,270,2.0,3.0,0,0.00,,,0.00,meteohub,2013-06-22 23:02:00,
2013-06-22 19:05:00,82.6,82.6,30.35,West,270,2.0,3.0,0,0.00,,,0.00,meteohub,2013-06-22 23:05:00,
2013-06-22 19:06:00,82.6,82.6,30.35,West,270,2.0,3.0,0,0.00,,,0.00,meteohub,2013-06-22 23:06:00,
2013-06-22 19:07:00,82.6,82.6,30.35,West,270,2.0,3.0,0,0.00,,,0.00,meteohub,2013-06-22 23:07:00,
2013-06-22 19:11:00,82.4,82.4,30.35,NE,45,0.0,2.0,0,0.00,,,0.00,meteohub,2013-06-22 23:11:00,
2013-06-22 19:12:00,82.4,82.4,30.35,SE,135,0.0,2.0,0,0.00,,,0.00,meteohub,2013-06-22 23:12:00,
2013-06-22 19:13:00,82.2,82.2,30.35,NE,45,0.0,2.0,0,0.00,,,0.00,meteohub,2013-06-22 23:13:00,
2013-06-22 19:14:00,82.2,82.2,30.35,NE,45,0.0,2.0,0,0.00,,,0.00,meteohub,2013-06-22 23:14:00,
2013-06-22 19:16:00,82.0,82.0,30.35,NE,45,0.0,2.0,0,0.00,,,0.00,meteohub,2013-06-22 23:16:00,
2013-06-22 19:17:00,81.9,81.9,30.35,NE,45,0.0,2.0,0,0.00,,,0.00,meteohub,2013-06-22 23:17:00,
2013-06-22 19:19:00,81.9,81.9,30.35,West,270,0.0,2.0,0,0.00,,,0.00,meteohub,2013-06-22 23:19:00,
2013-06-22 19:21:00,81.5,81.5,30.36,North,0,0.0,2.0,0,0.00,,,0.00,meteohub,2013-06-22 23:21:00,
2013-06-22 19:22:00,81.5,81.5,30.36,NE,45,0.0,2.0,0,0.00,,,0.00,meteohub,2013-06-22 23:22:00,
2013-06-22 19:24:00,81.0,81.0,30.36,WSW,248,2.0,2.0,0,0.00,,,0.00,meteohub,2013-06-22 23:24:00,
2013-06-22 19:25:00,80.8,80.8,30.36,East,90,2.0,2.0,0,0.00,,,0.00,meteohub,2013-06-22 23:25:00,
2013-06-22 19:26:00,80.4,80.4,30.36,West,270,1.0,0.0,0,0.00,,,0.00,meteohub,2013-06-22 23:26:00,
2013-06-22 19:27:00,80.2,80.2,30.36,West,270,1.0,0.0,0,0.00,,,0.00,meteohub,2013-06-22 23:27:00,
2013-06-22 19:30:00,79.9,79.9,30.36,NW,315,0.0,0.0,0,0.00,,,0.00,meteohub,2013-06-22 23:30:00,
2013-06-22 19:31:00,79.7,79.7,30.36,WSW,248,1.0,2.0,0,0.00,,,0.00,meteohub,2013-06-22 23:31:00,
2013-06-22 19:34:00,79.3,79.3,30.36,WSW,248,1.0,2.0,0,0.00,,,0.00,meteohub,2013-06-22 23:34:00,
2013-06-22 19:35:00,79.3,79.3,30.36,North,0,0.0,2.0,0,0.00,,,0.00,meteohub,2013-06-22 23:35:00,
2013-06-22 19:36:00,79.2,79.2,30.36,North,0,0.0,2.0,0,0.00,,,0.00,meteohub,2013-06-22 23:36:00,
2013-06-22 19:39:00,79.0,79.0,30.36,WSW,248,0.0,2.0,0,0.00,,,0.00,meteohub,2013-06-22 23:39:00,
2013-06-22 19:41:00,78.8,78.8,30.36,NE,45,1.0,2.0,0,0.00,,,0.00,meteohub,2013-06-22 23:41:00,
2013-06-22 19:42:00,78.8,78.8,30.36,NE,45,0.0,2.0,0,0.00,,,0.00,meteohub,2013-06-22 23:42:00,
2013-06-22 19:44:00,78.6,78.6,30.36,NE,45,0.0,2.0,0,0.00,,,0.00,meteohub,2013-06-22 23:44:00,
2013-06-22 19:46:00,78.4,78.4,30.36,NE,45,0.0,1.0,0,0.00,,,0.00,meteohub,2013-06-22 23:46:00,
2013-06-22 19:47:00,78.4,78.4,30.36,NE,45,0.0,1.0,0,0.00,,,0.00,meteohub,2013-06-22 23:47:00,
2013-06-22 19:48:00,78.4,78.4,30.36,NE,45,0.0,1.0,0,0.00,,,0.00,meteohub,2013-06-22 23:48:00,
2013-06-22 19:51:00,78.3,78.3,30.37,East,90,1.0,1.0,0,0.00,,,0.00,meteohub,2013-06-22 23:51:00,
2013-06-22 19:53:00,78.1,78.1,30.37,East,90,0.0,1.0,0,0.00,,,0.00,meteohub,2013-06-22 23:53:00,
2013-06-22 19:57:00,77.9,77.9,30.36,NW,315,0.0,1.0,0,0.00,,,0.00,meteohub,2013-06-22 23:57:00,
2013-06-22 19:58:00,77.9,77.9,30.36,NW,315,0.0,1.0,0,0.00,,,0.00,meteohub,2013-06-22 23:58:00,
2013-06-22 19:59:00,77.9,77.9,30.37,NW,315,0.0,1.0,0,0.00,,,0.00,meteohub,2013-06-22 23:59:00,
2013-06-22 20:00:00,77.7,77.7,30.37,NW,315,0.0,1.0,0,0.00,,,0.00,meteohub,2013-06-23 00:00:00,
2013-06-22 20:02:00,77.7,77.7,30.37,NW,315,0.0,1.0,0,0.00,,,0.00,meteohub,2013-06-23 00:02:00,
2013-06-22 20:03:00,77.7,77.7,30.37,NW,315,0.0,1.0,0,0.00,,,0.00,meteohub,2013-06-23 00:03:00,
2013-06-22 20:04:00,77.7,77.7,30.37,NW,315,0.0,1.0,0,0.00,,,0.00,meteohub,2013-06-23 00:04:00,
2013-06-22 20:06:00,77.7,77.7,30.37,NW,315,0.0,1.0,0,0.00,,,0.00,meteohub,2013-06-23 00:06:00,
2013-06-22 20:08:00,77.4,77.4,30.37,East,90,0.0,1.0,0,0.00,,,0.00,meteohub,2013-06-23 00:08:00,
2013-06-22 20:09:00,77.2,77.2,30.37,NW,315,1.0,1.0,0,0.00,,,0.00,meteohub,2013-06-23 00:09:00,
2013-06-22 20:11:00,77.2,77.2,30.37,South,180,1.0,0.0,0,0.00,,,0.00,meteohub,2013-06-23 00:11:00,
2013-06-22 20:13:00,77.2,77.2,30.37,East,90,0.0,0.0,0,0.00,,,0.00,meteohub,2013-06-23 00:13:00,
2013-06-22 20:14:00,77.2,77.2,30.37,North,0,0.0,0.0,0,0.00,,,0.00,meteohub,2013-06-23 00:14:00,
2013-06-22 20:16:00,77.0,77.0,30.37,North,0,0.0,1.0,0,0.00,,,0.00,meteohub,2013-06-23 00:16:00,
2013-06-22 20:17:00,77.0,77.0,30.37,NE,45,0.0,1.0,0,0.00,,,0.00,meteohub,2013-06-23 00:17:00,
2013-06-22 20:19:00,76.8,76.8,30.38,East,90,0.0,1.0,0,0.00,,,0.00,meteohub,2013-06-23 00:19:00,
2013-06-22 20:20:00,76.6,76.6,30.37,East,90,0.0,1.0,0,0.00,,,0.00,meteohub,2013-06-23 00:20:00,
2013-06-22 20:21:00,76.6,76.6,30.38,NE,45,0.0,1.0,0,0.00,,,0.00,meteohub,2013-06-23 00:21:00,
2013-06-22 20:23:00,76.6,76.6,30.37,North,0,0.0,1.0,0,0.00,,,0.00,meteohub,2013-06-23 00:23:00,
2013-06-22 20:25:00,76.5,76.5,30.37,East,90,0.0,1.0,0,0.00,,,0.00,meteohub,2013-06-23 00:25:00,
2013-06-22 20:26:00,76.3,76.3,30.37,West,270,0.0,1.0,0,0.00,,,0.00,meteohub,2013-06-23 00:26:00,
2013-06-22 20:28:00,76.3,76.3,30.37,East,90,0.0,1.0,0,0.00,,,0.00,meteohub,2013-06-23 00:28:00,
2013-06-22 20:31:00,76.1,76.1,30.37,SE,135,1.0,2.0,0,0.00,,,0.00,meteohub,2013-06-23 00:31:00,
2013-06-22 20:33:00,75.9,75.9,30.37,South,180,0.0,2.0,0,0.00,,,0.00,meteohub,2013-06-23 00:33:00,
2013-06-22 20:36:00,75.9,75.9,30.37,WSW,248,1.0,2.0,0,0.00,,,0.00,meteohub,2013-06-23 00:36:00,
2013-06-22 20:37:00,75.9,75.9,30.37,SE,135,2.0,2.0,0,0.00,,,0.00,meteohub,2013-06-23 00:37:00,
2013-06-22 20:38:00,75.9,75.9,30.37,SE,135,2.0,2.0,0,0.00,,,0.00,meteohub,2013-06-23 00:38:00,
2013-06-22 20:40:00,75.9,75.9,30.37,WSW,248,1.0,2.0,0,0.00,,,0.00,meteohub,2013-06-23 00:40:00,
2013-06-22 20:42:00,75.7,75.7,30.37,WSW,248,1.0,2.0,0,0.00,,,0.00,meteohub,2013-06-23 00:42:00,
2013-06-22 20:43:00,75.7,75.7,30.36,WSW,248,1.0,2.0,0,0.00,,,0.00,meteohub,2013-06-23 00:43:00,
2013-06-22 20:44:00,75.7,75.7,30.37,SE,135,1.0,2.0,0,0.00,,,0.00,meteohub,2013-06-23 00:44:00,
2013-06-22 20:46:00,75.7,75.7,30.37,SE,135,0.0,2.0,0,0.00,,,0.00,meteohub,2013-06-23 00:46:00,
2013-06-22 20:47:00,75.6,75.6,30.37,SE,135,0.0,2.0,0,0.00,,,0.00,meteohub,2013-06-23 00:47:00,
2013-06-22 20:48:00,75.6,75.6,30.37,SE,135,0.0,2.0,0,0.00,,,0.00,meteohub,2013-06-23 00:48:00,
2013-06-22 20:49:00,75.6,75.6,30.36,SE,135,0.0,2.0,0,0.00,,,0.00,meteohub,2013-06-23 00:49:00,
2013-06-22 20:53:00,75.4,75.4,30.37,SE,135,0.0,2.0,0,0.00,,,0.00,meteohub,2013-06-23 00:53:00,
2013-06-22 20:54:00,75.2,75.2,30.37,SE,135,0.0,2.0,0,0.00,,,0.00,meteohub,2013-06-23 00:54:00,
2013-06-22 20:55:00,75.2,75.2,30.37,SE,135,0.0,2.0,0,0.00,,,0.00,meteohub,2013-06-23 00:55:00,
2013-06-22 20:58:00,74.8,74.8,30.37,SE,135,0.0,2.0,0,0.00,,,0.00,meteohub,2013-06-23 00:58:00,
2013-06-22 20:59:00,74.8,74.8,30.37,SE,135,0.0,2.0,0,0.00,,,0.00,meteohub,2013-06-23 00:59:00,
2013-06-22 21:00:00,74.8,74.8,30.37,SE,135,0.0,1.0,0,0.00,,,0.00,meteohub,2013-06-23 01:00:00,
2013-06-22 21:01:00,74.8,74.8,30.36,SE,135,0.0,1.0,0,0.00,,,0.00,meteohub,2013-06-23 01:01:00,
2013-06-22 21:04:00,74.8,74.8,30.36,SE,135,0.0,1.0,0,0.00,,,0.00,meteohub,2013-06-23 01:04:00,
2013-06-22 21:05:00,74.8,74.8,30.36,SE,135,0.0,1.0,0,0.00,,,0.00,meteohub,2013-06-23 01:05:00,
2013-06-22 21:07:00,74.8,74.8,30.37,SE,135,0.0,1.0,0,0.00,,,0.00,meteohub,2013-06-23 01:07:00,
2013-06-22 21:08:00,74.5,74.5,30.37,South,180,0.0,1.0,0,0.00,,,0.00,meteohub,2013-06-23 01:08:00,
2013-06-22 21:10:00,74.5,74.5,30.37,WSW,248,1.0,1.0,0,0.00,,,0.00,meteohub,2013-06-23 01:10:00,
2013-06-22 21:11:00,74.5,74.5,30.37,East,90,2.0,2.0,0,0.00,,,0.00,meteohub,2013-06-23 01:11:00,
2013-06-22 21:13:00,74.7,74.7,30.37,South,180,3.0,3.0,0,0.00,,,0.00,meteohub,2013-06-23 01:13:00,
2013-06-22 21:15:00,74.8,74.8,30.37,South,180,0.0,2.0,0,0.00,,,0.00,meteohub,2013-06-23 01:15:00,
2013-06-22 21:16:00,74.8,74.8,30.37,South,180,0.0,2.0,0,0.00,,,0.00,meteohub,2013-06-23 01:16:00,
2013-06-22 21:18:00,74.8,74.8,30.37,SE,135,0.0,2.0,0,0.00,,,0.00,meteohub,2013-06-23 01:18:00,
2013-06-22 21:19:00,74.8,74.8,30.38,SE,135,1.0,2.0,0,0.00,,,0.00,meteohub,2013-06-23 01:19:00,
2013-06-22 21:21:00,74.8,74.8,30.38,SE,135,0.0,3.0,0,0.00,,,0.00,meteohub,2013-06-23 01:21:00,
2013-06-22 21:23:00,74.7,74.7,30.38,North,0,2.0,3.0,0,0.00,,,0.00,meteohub,2013-06-23 01:23:00,
2013-06-22 21:24:00,74.5,74.5,30.38,SE,135,1.0,3.0,0,0.00,,,0.00,meteohub,2013-06-23 01:24:00,
2013-06-22 21:26:00,74.3,74.3,30.38,North,0,0.0,3.0,0,0.00,,,0.00,meteohub,2013-06-23 01:26:00,
2013-06-22 21:27:00,74.1,74.1,30.38,NE,45,0.0,3.0,0,0.00,,,0.00,meteohub,2013-06-23 01:27:00,
2013-06-22 21:28:00,74.1,74.1,30.38,NE,45,0.0,3.0,0,0.00,,,0.00,meteohub,2013-06-23 01:28:00,
2013-06-22 21:29:00,74.1,74.1,30.38,NE,45,0.0,3.0,0,0.00,,,0.00,meteohub,2013-06-23 01:29:00,
2013-06-22 21:31:00,73.9,73.9,30.38,North,0,1.0,2.0,0,0.00,,,0.00,meteohub,2013-06-23 01:31:00,
2013-06-22 21:33:00,73.8,73.8,30.38,NW,315,0.0,2.0,0,0.00,,,0.00,meteohub,2013-06-23 01:33:00,
2013-06-22 21:35:00,73.8,73.8,30.38,North,0,0.0,2.0,0,0.00,,,0.00,meteohub,2013-06-23 01:35:00,
2013-06-22 21:37:00,73.6,73.6,30.38,West,270,0.0,2.0,0,0.00,,,0.00,meteohub,2013-06-23 01:37:00,
2013-06-22 21:38:00,73.6,73.6,30.38,NE,45,0.0,2.0,0,0.00,,,0.00,meteohub,2013-06-23 01:38:00,
2013-06-22 21:39:00,73.6,73.6,30.38,East,90,0.0,2.0,0,0.00,,,0.00,meteohub,2013-06-23 01:39:00,
2013-06-22 21:40:00,73.6,73.6,30.38,East,90,0.0,2.0,0,0.00,,,0.00,meteohub,2013-06-23 01:40:00,
2013-06-22 21:41:00,73.6,73.6,30.38,NE,45,0.0,1.0,0,0.00,,,0.00,meteohub,2013-06-23 01:41:00,
2013-06-22 21:44:00,73.2,73.2,30.38,North,0,0.0,1.0,0,0.00,,,0.00,meteohub,2013-06-23 01:44:00,
2013-06-22 21:45:00,73.2,73.2,30.38,NE,45,0.0,1.0,0,0.00,,,0.00,meteohub,2013-06-23 01:45:00,
2013-06-22 21:46:00,73.2,73.2,30.38,NE,45,2.0,2.0,0,0.00,,,0.00,meteohub,2013-06-23 01:46:00,
2013-06-22 21:48:00,73.2,73.2,30.39,SE,135,0.0,1.0,0,0.00,,,0.00,meteohub,2013-06-23 01:48:00,
2013-06-22 21:50:00,73.0,73.0,30.39,NE,45,1.0,2.0,0,0.00,,,0.00,meteohub,2013-06-23 01:50:00,
2013-06-22 21:51:00,72.9,72.9,30.39,SE,135,2.0,2.0,0,0.00,,,0.00,meteohub,2013-06-23 01:51:00,
2013-06-22 21:52:00,72.9,72.9,30.38,WSW,248,1.0,2.0,0,0.00,,,0.00,meteohub,2013-06-23 01:52:00,
2013-06-22 21:53:00,72.9,72.9,30.38,East,90,2.0,2.0,0,0.00,,,0.00,meteohub,2013-06-23 01:53:00,
2013-06-22 21:56:00,72.9,72.9,30.39,East,90,2.0,2.0,0,0.00,,,0.00,meteohub,2013-06-23 01:56:00,
2013-06-22 21:57:00,72.9,72.9,30.39,East,90,0.0,2.0,0,0.00,,,0.00,meteohub,2013-06-23 01:57:00,
2013-06-22 21:58:00,72.9,72.9,30.38,WSW,248,0.0,2.0,0,0.00,,,0.00,meteohub,2013-06-23 01:58:00,
2013-06-22 21:59:00,72.9,72.9,30.38,WSW,248,0.0,2.0,0,0.00,,,0.00,meteohub,2013-06-23 01:59:00,
2013-06-22 22:01:00,72.9,72.9,30.39,NW,315,1.0,2.0,0,0.00,,,0.00,meteohub,2013-06-23 02:01:00,
2013-06-22 22:02:00,72.9,72.9,30.39,NW,315,1.0,2.0,0,0.00,,,0.00,meteohub,2013-06-23 02:02:00,
2013-06-22 22:03:00,72.9,72.9,30.39,NW,315,1.0,2.0,0,0.00,,,0.00,meteohub,2013-06-23 02:03:00,
2013-06-22 22:04:00,72.9,72.9,30.39,NW,315,1.0,2.0,0,0.00,,,0.00,meteohub,2013-06-23 02:04:00,
2013-06-22 22:07:00,72.9,72.9,30.39,NW,315,1.0,2.0,0,0.00,,,0.00,meteohub,2013-06-23 02:07:00,
2013-06-22 22:08:00,72.9,72.9,30.39,South,180,0.0,2.0,0,0.00,,,0.00,meteohub,2013-06-23 02:08:00,
2013-06-22 22:09:00,72.9,72.9,30.39,South,180,0.0,2.0,0,0.00,,,0.00,meteohub,2013-06-23 02:09:00,
2013-06-22 22:10:00,72.9,72.9,30.39,South,180,2.0,2.0,0,0.00,,,0.00,meteohub,2013-06-23 02:10:00,
2013-06-22 22:13:00,72.9,72.9,30.39,SE,135,2.0,2.0,0,0.00,,,0.00,meteohub,2013-06-23 02:13:00,
2013-06-22 22:14:00,72.9,72.9,30.40,North,0,0.0,2.0,0,0.00,,,0.00,meteohub,2013-06-23 02:14:00,
2013-06-22 22:15:00,72.9,72.9,30.40,WSW,248,2.0,2.0,0,0.00,,,0.00,meteohub,2013-06-23 02:15:00,
2013-06-22 22:18:00,73.0,73.0,30.40,South,180,1.0,2.0,0,0.00,,,0.00,meteohub,2013-06-23 02:18:00,
2013-06-22 22:20:00,73.0,73.0,30.39,South,180,2.0,2.0,0,0.00,,,0.00,meteohub,2013-06-23 02:20:00,
2013-06-22 22:22:00,73.0,73.0,30.40,NW,315,1.0,2.0,0,0.00,,,0.00,meteohub,2013-06-23 02:22:00,
2013-06-22 22:24:00,73.2,73.2,30.40,NW,315,1.0,2.0,0,0.00,,,0.00,meteohub,2013-06-23 02:24:00,
2013-06-22 22:25:00,73.2,73.2,30.40,West,270,1.0,2.0,0,0.00,,,0.00,meteohub,2013-06-23 02:25:00,
2013-06-22 22:26:00,73.2,73.2,30.40,WSW,248,2.0,2.0,0,0.00,,,0.00,meteohub,2013-06-23 02:26:00,
2013-06-22 22:27:00,73.2,73.2,30.40,South,180,0.0,2.0,0,0.00,,,0.00,meteohub,2013-06-23 02:27:00,
2013-06-22 22:30:00,73.2,73.2,30.40,South,180,0.0,2.0,0,0.00,,,0.00,meteohub,2013-06-23 02:30:00,
2013-06-22 22:31:00,73.0,73.0,30.40,South,180,0.0,2.0,0,0.00,,,0.00,meteohub,2013-06-23 02:31:00,
2013-06-22 22:32:00,73.0,73.0,30.39,North,0,0.0,2.0,0,0.00,,,0.00,meteohub,2013-06-23 02:32:00,
2013-06-22 22:35:00,72.7,72.7,30.40,West,270,1.0,2.0,0,0.00,,,0.00,meteohub,2013-06-23 02:35:00,
2013-06-22 22:36:00,72.7,72.7,30.39,West,270,0.0,2.0,0,0.00,,,0.00,meteohub,2013-06-23 02:36:00,
2013-06-22 22:37:00,72.7,72.7,30.39,West,270,0.0,2.0,0,0.00,,,0.00,meteohub,2013-06-23 02:37:00,
2013-06-22 22:39:00,72.7,72.7,30.39,NW,315,0.0,2.0,0,0.00,,,0.00,meteohub,2013-06-23 02:39:00,
2013-06-22 22:40:00,72.5,72.5,30.39,WSW,248,1.0,2.0,0,0.00,,,0.00,meteohub,2013-06-23 02:40:00,
2013-06-22 22:42:00,72.5,72.5,30.40,WSW,248,2.0,2.0,0,0.00,,,0.00,meteohub,2013-06-23 02:42:00,
2013-06-22 22:43:00,72.5,72.5,30.39,NW,315,1.0,2.0,0,0.00,,,0.00,meteohub,2013-06-23 02:43:00,
2013-06-22 22:44:00,72.5,72.5,30.39,South,180,0.0,2.0,0,0.00,,,0.00,meteohub,2013-06-23 02:44:00,
2013-06-22 22:46:00,72.5,72.5,30.40,WSW,248,3.0,3.0,0,0.00,,,0.00,meteohub,2013-06-23 02:46:00,
2013-06-22 22:48:00,72.5,72.5,30.40,North,0,1.0,2.0,0,0.00,,,0.00,meteohub,2013-06-23 02:48:00,
2013-06-22 22:49:00,72.5,72.5,30.39,South,180,1.0,2.0,0,0.00,,,0.00,meteohub,2013-06-23 02:49:00,
2013-06-22 22:50:00,72.5,72.5,30.40,North,0,1.0,2.0,0,0.00,,,0.00,meteohub,2013-06-23 02:50:00,
2013-06-22 22:52:00,72.5,72.5,30.40,WSW,248,2.0,3.0,0,0.00,,,0.00,meteohub,2013-06-23 02:52:00,
2013-06-22 22:53:00,72.5,72.5,30.40,West,270,1.0,3.0,0,0.00,,,0.00,meteohub,2013-06-23 02:53:00,
2013-06-22 22:54:00,72.7,72.7,30.40,South,180,2.0,3.0,0,0.00,,,0.00,meteohub,2013-06-23 02:54:00,
2013-06-22 22:56:00,72.7,72.7,30.40,West,270,1.0,3.0,0,0.00,,,0.00,meteohub,2013-06-23 02:56:00,
2013-06-22 22:57:00,72.7,72.7,30.40,West,270,2.0,3.0,0,0.00,,,0.00,meteohub,2013-06-23 02:57:00,
2013-06-22 22:59:00,72.7,72.7,30.40,East,90,0.0,3.0,0,0.00,,,0.00,meteohub,2013-06-23 02:59:00,
2013-06-22 23:01:00,72.7,72.7,30.40,West,270,0.0,3.0,0,0.00,,,0.00,meteohub,2013-06-23 03:01:00,
2013-06-22 23:02:00,72.7,72.7,30.40,West,270,0.0,3.0,0,0.00,,,0.00,meteohub,2013-06-23 03:02:00,
2013-06-22 23:03:00,72.7,72.7,30.40,West,270,0.0,3.0,0,0.00,,,0.00,meteohub,2013-06-23 03:03:00,
2013-06-22 23:04:00,72.7,72.7,30.40,West,270,0.0,3.0,0,0.00,,,0.00,meteohub,2013-06-23 03:04:00,
2013-06-22 23:05:00,72.7,72.7,30.40,West,270,0.0,3.0,0,0.00,,,0.00,meteohub,2013-06-23 03:05:00,
2013-06-22 23:07:00,72.7,72.7,30.40,West,270,0.0,2.0,0,0.00,,,0.00,meteohub,2013-06-23 03:07:00,
2013-06-22 23:08:00,72.3,72.3,30.40,South,180,0.0,2.0,0,0.00,,,0.00,meteohub,2013-06-23 03:08:00,
2013-06-22 23:09:00,72.3,72.3,30.40,South,180,0.0,2.0,0,0.00,,,0.00,meteohub,2013-06-23 03:09:00,
2013-06-22 23:10:00,72.1,72.1,30.40,South,180,0.0,2.0,0,0.00,,,0.00,meteohub,2013-06-23 03:10:00,
2013-06-22 23:12:00,72.0,72.0,30.40,NW,315,0.0,2.0,0,0.00,,,0.00,meteohub,2013-06-23 03:12:00,
2013-06-22 23:13:00,72.0,72.0,30.40,SE,135,0.0,2.0,0,0.00,,,0.00,meteohub,2013-06-23 03:13:00,
2013-06-22 23:14:00,72.0,72.0,30.40,SE,135,1.0,2.0,0,0.00,,,0.00,meteohub,2013-06-23 03:14:00,
2013-06-22 23:15:00,72.0,72.0,30.40,SE,135,1.0,2.0,0,0.00,,,0.00,meteohub,2013-06-23 03:15:00,
2013-06-22 23:17:00,72.0,72.0,30.40,West,270,2.0,3.0,0,0.00,,,0.00,meteohub,2013-06-23 03:17:00,
2013-06-22 23:18:00,71.8,71.8,30.39,South,180,0.0,3.0,0,0.00,,,0.00,meteohub,2013-06-23 03:18:00,
2013-06-22 23:20:00,71.8,71.8,30.39,SE,135,0.0,3.0,0,0.00,,,0.00,meteohub,2013-06-23 03:20:00,
2013-06-22 23:23:00,71.8,71.8,30.39,South,180,2.0,3.0,0,0.00,,,0.00,meteohub,2013-06-23 03:23:00,
2013-06-22 23:24:00,71.8,71.8,30.39,South,180,1.0,3.0,0,0.00,,,0.00,meteohub,2013-06-23 03:24:00,
2013-06-22 23:25:00,72.0,72.0,30.40,West,270,0.0,3.0,0,0.00,,,0.00,meteohub,2013-06-23 03:25:00,
2013-06-22 23:27:00,72.0,72.0,30.40,North,0,2.0,3.0,0,0.00,,,0.00,meteohub,2013-06-23 03:27:00,
2013-06-22 23:29:00,72.0,72.0,30.39,NW,315,0.0,3.0,0,0.00,,,0.00,meteohub,2013-06-23 03:29:00,
2013-06-22 23:30:00,72.0,72.0,30.40,WSW,248,0.0,3.0,0,0.00,,,0.00,meteohub,2013-06-23 03:30:00,
2013-06-22 23:32:00,72.0,72.0,30.40,South,180,2.0,2.0,0,0.00,,,0.00,meteohub,2013-06-23 03:32:00,
2013-06-22 23:35:00,72.0,72.0,30.40,NW,315,0.0,2.0,0,0.00,,,0.00,meteohub,2013-06-23 03:35:00,
2013-06-22 23:36:00,71.8,71.8,30.40,South,180,0.0,2.0,0,0.00,,,0.00,meteohub,2013-06-23 03:36:00,
2013-06-22 23:37:00,71.8,71.8,30.40,NW,315,0.0,2.0,0,0.00,,,0.00,meteohub,2013-06-23 03:37:00,
2013-06-22 23:40:00,71.8,71.8,30.40,NW,315,0.0,2.0,0,0.00,,,0.00,meteohub,2013-06-23 03:40:00,
2013-06-22 23:41:00,71.8,71.8,30.40,West,270,0.0,2.0,0,0.00,,,0.00,meteohub,2013-06-23 03:41:00,
2013-06-22 23:43:00,71.6,71.6,30.40,North,0,0.0,2.0,0,0.00,,,0.00,meteohub,2013-06-23 03:43:00,
2013-06-22 23:46:00,71.6,71.6,30.40,East,90,0.0,2.0,0,0.00,,,0.00,meteohub,2013-06-23 03:46:00,
2013-06-22 23:47:00,71.6,71.6,30.40,East,90,0.0,2.0,0,0.00,,,0.00,meteohub,2013-06-23 03:47:00,
2013-06-22 23:48:00,71.4,71.4,30.40,East,90,0.0,2.0,0,0.00,,,0.00,meteohub,2013-06-23 03:48:00,
2013-06-22 23:52:00,71.2,71.2,30.40,South,180,0.0,1.0,0,0.00,,,0.00,meteohub,2013-06-23 03:52:00,
2013-06-22 23:53:00,71.2,71.2,30.40,NW,315,0.0,1.0,0,0.00,,,0.00,meteohub,2013-06-23 03:53:00,
2013-06-22 23:54:00,71.2,71.2,30.40,SE,135,0.0,1.0,0,0.00,,,0.00,meteohub,2013-06-23 03:54:00,
2013-06-22 23:58:00,71.1,71.1,30.40,South,180,0.0,0.0,0,0.00,,,0.00,meteohub,2013-06-23 03:58:00,
2013-06-22 23:59:00,71.1,71.1,30.40,South,180,0.0,0.0,0,0.00,,,0.00,meteohub,2013-06-23 03:59:00,